Time,TemperatureF,DewpointF,PressureIn,WindDirection,WindDirectionDegrees,WindSpeedMPH,WindSpeedGustMPH,Humidity,HourlyPrecipIn,Conditions,Clouds,dailyrainin,SoftwareType,DateUTC
2013-03-13 00:00:00,34.7,26.9,30.01,NW,315,8.3,12.3,73,0.00,,,0.00,WUHU216HW,2013-03-13 04:00:00,
2013-03-13 00:05:00,34.6,26.7,30.00,NNW,338,7.2,9.4,73,0.00,,,0.00,WUHU216HW,2013-03-13 04:05:00,
2013-03-13 00:10:00,34.6,26.7,30.01,North,0,6.0,7.4,73,0.00,,,0.00,WUHU216HW,2013-03-13 04:10:00,
2013-03-13 00:15:00,34.7,26.9,30.01,WNW,293,6.0,7.4,73,0.00,,,0.00,WUHU216HW,2013-03-13 04:15:00,
2013-03-13 00:16:00,34.6,26.7,30.01,West,270,5.6,7.4,73,0.00,,,0.00,WUHU216HW,2013-03-13 04:16:00,
2013-03-13 00:20:00,34.6,26.7,30.01,NW,315,6.9,6.9,73,0.00,,,0.00,WUHU216HW,2013-03-13 04:20:00,
2013-03-13 00:23:00,34.6,26.7,30.01,WNW,293,3.8,6.9,73,0.00,,,0.00,WUHU216HW,2013-03-13 04:23:00,
2013-03-13 00:25:00,34.6,27.0,30.00,West,270,4.0,6.9,74,0.00,,,0.00,WUHU216HW,2013-03-13 04:25:00,
2013-03-13 00:26:00,34.6,27.0,30.00,West,270,4.0,6.9,74,0.00,,,0.00,WUHU216HW,2013-03-13 04:26:00,
2013-03-13 00:28:00,34.4,26.8,30.01,NW,315,3.4,6.9,74,0.00,,,0.00,WUHU216HW,2013-03-13 04:28:00,
2013-03-13 00:30:00,34.4,26.8,30.00,WSW,248,3.4,6.9,74,0.00,,,0.00,WUHU216HW,2013-03-13 04:30:00,
2013-03-13 00:31:00,34.4,26.8,30.00,NW,315,2.2,5.1,74,0.00,,,0.00,WUHU216HW,2013-03-13 04:31:00,
2013-03-13 00:33:00,34.4,26.8,30.00,NW,315,2.2,4.3,74,0.00,,,0.00,WUHU216HW,2013-03-13 04:33:00,
2013-03-13 00:35:00,34.2,26.6,30.00,NNW,338,2.2,4.0,74,0.00,,,0.00,WUHU216HW,2013-03-13 04:35:00,
2013-03-13 00:36:00,34.2,26.6,30.00,NNW,338,2.2,4.0,74,0.00,,,0.00,WUHU216HW,2013-03-13 04:36:00,
2013-03-13 00:38:00,34.2,27.0,29.99,NW,315,5.1,5.1,75,0.00,,,0.00,WUHU216HW,2013-03-13 04:38:00,
2013-03-13 00:40:00,34.2,27.0,29.99,West,270,5.1,5.1,75,0.00,,,0.00,WUHU216HW,2013-03-13 04:40:00,
2013-03-13 00:41:00,34.2,27.0,29.99,West,270,5.1,5.1,75,0.00,,,0.00,WUHU216HW,2013-03-13 04:41:00,
2013-03-13 00:42:00,34.2,27.0,29.99,NW,315,4.7,5.1,75,0.00,,,0.00,WUHU216HW,2013-03-13 04:42:00,
2013-03-13 00:43:00,34.2,27.0,29.99,NW,315,5.1,5.1,75,0.00,,,0.00,WUHU216HW,2013-03-13 04:43:00,
2013-03-13 00:45:00,34.2,27.0,29.99,NW,315,4.0,8.1,75,0.00,,,0.00,WUHU216HW,2013-03-13 04:45:00,
2013-03-13 00:46:00,34.2,27.0,29.99,NW,315,4.0,8.1,75,0.00,,,0.00,WUHU216HW,2013-03-13 04:46:00,
2013-03-13 00:47:00,34.2,27.0,29.99,WNW,293,4.9,8.1,75,0.00,,,0.00,WUHU216HW,2013-03-13 04:47:00,
2013-03-13 00:48:00,34.2,27.0,29.99,NW,315,5.4,8.1,75,0.00,,,0.00,WUHU216HW,2013-03-13 04:48:00,
2013-03-13 00:51:00,34.2,26.6,29.99,WNW,293,7.2,10.1,74,0.00,,,0.00,WUHU216HW,2013-03-13 04:51:00,
2013-03-13 00:53:00,34.2,26.6,29.99,West,270,5.6,10.1,74,0.00,,,0.00,WUHU216HW,2013-03-13 04:53:00,
2013-03-13 00:57:00,34.4,26.8,29.99,West,270,6.7,10.1,74,0.00,,,0.00,WUHU216HW,2013-03-13 04:57:00,
2013-03-13 00:58:00,34.4,26.8,29.99,West,270,6.7,10.1,74,0.00,,,0.00,WUHU216HW,2013-03-13 04:58:00,
2013-03-13 01:02:00,34.4,26.8,30.00,NW,315,6.5,8.9,74,0.00,,,0.00,WUHU216HW,2013-03-13 05:02:00,
2013-03-13 01:03:00,34.4,26.8,30.00,WNW,293,5.4,8.9,74,0.00,,,0.00,WUHU216HW,2013-03-13 05:03:00,
2013-03-13 01:04:00,34.4,26.8,30.00,WNW,293,5.4,8.9,74,0.00,,,0.00,WUHU216HW,2013-03-13 05:04:00,
2013-03-13 01:07:00,34.4,26.6,29.99,NNW,338,5.6,8.9,73,0.00,,,0.00,WUHU216HW,2013-03-13 05:07:00,
2013-03-13 01:08:00,34.4,26.6,29.99,WNW,293,6.3,8.9,73,0.00,,,0.00,WUHU216HW,2013-03-13 05:08:00,
2013-03-13 01:09:00,34.4,26.6,29.99,WNW,293,6.3,8.9,73,0.00,,,0.00,WUHU216HW,2013-03-13 05:09:00,
2013-03-13 01:13:00,34.4,26.8,29.99,NNW,338,5.4,6.7,74,0.00,,,0.00,WUHU216HW,2013-03-13 05:13:00,
2013-03-13 01:14:00,34.4,26.8,29.99,West,270,6.9,6.9,74,0.00,,,0.00,WUHU216HW,2013-03-13 05:14:00,
2013-03-13 01:18:00,34.4,26.8,29.99,NW,315,6.0,7.8,74,0.00,,,0.00,WUHU216HW,2013-03-13 05:18:00,
2013-03-13 01:19:00,34.4,26.8,29.99,West,270,8.5,8.5,74,0.00,,,0.00,WUHU216HW,2013-03-13 05:19:00,
2013-03-13 01:23:00,34.4,26.8,29.99,WNW,293,7.8,8.5,74,0.00,,,0.00,WUHU216HW,2013-03-13 05:23:00,
2013-03-13 01:24:00,34.4,26.8,29.99,WNW,293,7.6,8.5,74,0.00,,,0.00,WUHU216HW,2013-03-13 05:24:00,
2013-03-13 01:28:00,34.4,26.8,29.99,NW,315,8.9,8.9,74,0.00,,,0.00,WUHU216HW,2013-03-13 05:28:00,
2013-03-13 01:29:00,34.4,26.8,29.99,NW,315,8.9,8.9,74,0.00,,,0.00,WUHU216HW,2013-03-13 05:29:00,
2013-03-13 01:33:00,34.4,26.8,29.99,NW,315,8.3,8.9,74,0.00,,,0.00,WUHU216HW,2013-03-13 05:33:00,
2013-03-13 01:34:00,34.4,26.8,29.99,NW,315,8.3,8.9,74,0.00,,,0.00,WUHU216HW,2013-03-13 05:34:00,
2013-03-13 01:38:00,34.6,27.0,30.00,South,180,6.9,8.9,74,0.00,,,0.00,WUHU216HW,2013-03-13 05:38:00,
2013-03-13 01:39:00,34.6,27.0,30.00,South,180,6.9,8.9,74,0.00,,,0.00,WUHU216HW,2013-03-13 05:39:00,
2013-03-13 01:44:00,34.6,27.0,29.99,NW,315,7.6,8.3,74,0.00,,,0.00,WUHU216HW,2013-03-13 05:44:00,
2013-03-13 01:49:00,34.4,26.8,29.99,WNW,293,7.6,7.6,74,0.00,,,0.00,WUHU216HW,2013-03-13 05:49:00,
2013-03-13 01:54:00,34.4,26.6,29.99,NW,315,6.3,8.7,73,0.00,,,0.00,WUHU216HW,2013-03-13 05:54:00,
2013-03-13 01:55:00,34.4,26.6,29.99,NW,315,6.3,8.7,73,0.00,,,0.00,WUHU216HW,2013-03-13 05:55:00,
2013-03-13 01:59:00,34.2,26.4,29.99,NW,315,8.3,8.7,73,0.00,,,0.00,WUHU216HW,2013-03-13 05:59:00,
2013-03-13 02:00:00,34.2,26.4,29.99,NNW,338,7.6,8.7,73,0.00,,,0.00,WUHU216HW,2013-03-13 06:00:00,
2013-03-13 02:04:00,34.2,25.4,29.99,NW,315,11.0,11.0,70,0.00,,,0.00,WUHU216HW,2013-03-13 06:04:00,
2013-03-13 02:05:00,34.2,25.4,29.99,West,270,9.6,11.0,70,0.00,,,0.00,WUHU216HW,2013-03-13 06:05:00,
2013-03-13 02:09:00,34.2,25.4,29.99,West,270,8.7,11.0,70,0.00,,,0.00,WUHU216HW,2013-03-13 06:09:00,
2013-03-13 02:10:00,34.2,25.4,29.99,WNW,293,9.6,11.0,70,0.00,,,0.00,WUHU216HW,2013-03-13 06:10:00,
2013-03-13 02:14:00,34.2,25.4,29.99,NW,315,7.8,10.1,70,0.00,,,0.00,WUHU216HW,2013-03-13 06:14:00,
2013-03-13 02:15:00,34.2,25.4,29.99,WNW,293,10.5,10.5,70,0.00,,,0.00,WUHU216HW,2013-03-13 06:15:00,
2013-03-13 02:19:00,34.0,25.2,29.99,NW,315,8.9,10.5,70,0.00,,,0.00,WUHU216HW,2013-03-13 06:19:00,
2013-03-13 02:20:00,34.0,25.2,29.99,NW,315,8.3,10.5,70,0.00,,,0.00,WUHU216HW,2013-03-13 06:20:00,
2013-03-13 02:21:00,34.0,24.8,29.99,WNW,293,8.9,10.5,69,0.00,,,0.00,WUHU216HW,2013-03-13 06:21:00,
2013-03-13 02:24:00,34.0,24.8,29.99,NW,315,7.8,11.4,69,0.00,,,0.00,WUHU216HW,2013-03-13 06:24:00,
2013-03-13 02:25:00,34.0,24.8,29.99,NW,315,7.8,11.4,69,0.00,,,0.00,WUHU216HW,2013-03-13 06:25:00,
2013-03-13 02:27:00,33.8,25.0,29.99,NW,315,8.5,11.4,70,0.00,,,0.00,WUHU216HW,2013-03-13 06:27:00,
2013-03-13 02:29:00,33.8,24.7,29.99,NNW,338,7.6,11.4,69,0.00,,,0.00,WUHU216HW,2013-03-13 06:29:00,
2013-03-13 02:30:00,33.8,24.7,29.99,NNW,338,7.8,11.4,69,0.00,,,0.00,WUHU216HW,2013-03-13 06:30:00,
2013-03-13 02:32:00,33.8,25.0,29.99,West,270,5.4,8.5,70,0.00,,,0.00,WUHU216HW,2013-03-13 06:32:00,
2013-03-13 02:35:00,33.7,24.5,29.99,NW,315,4.7,8.5,69,0.00,,,0.00,WUHU216HW,2013-03-13 06:35:00,
2013-03-13 02:36:00,33.7,24.5,29.99,NW,315,4.7,8.5,69,0.00,,,0.00,WUHU216HW,2013-03-13 06:36:00,
2013-03-13 02:37:00,33.7,24.5,29.99,NW,315,4.7,7.8,69,0.00,,,0.00,WUHU216HW,2013-03-13 06:37:00,
2013-03-13 02:40:00,33.7,24.8,29.99,WNW,293,6.9,7.4,70,0.00,,,0.00,WUHU216HW,2013-03-13 06:40:00,
2013-03-13 02:42:00,33.7,24.8,29.99,NNW,338,6.7,7.4,70,0.00,,,0.00,WUHU216HW,2013-03-13 06:42:00,
2013-03-13 02:45:00,33.7,24.5,29.99,West,270,7.8,8.5,69,0.00,,,0.00,WUHU216HW,2013-03-13 06:45:00,
2013-03-13 02:47:00,33.5,24.7,29.99,WNW,293,7.2,8.5,70,0.00,,,0.00,WUHU216HW,2013-03-13 06:47:00,
2013-03-13 02:48:00,33.5,24.7,29.99,WNW,293,7.2,8.5,70,0.00,,,0.00,WUHU216HW,2013-03-13 06:48:00,
2013-03-13 02:50:00,33.5,24.7,29.99,NW,315,6.3,9.6,70,0.00,,,0.00,WUHU216HW,2013-03-13 06:50:00,
2013-03-13 02:52:00,33.5,24.7,29.99,NW,315,9.8,9.8,70,0.00,,,0.00,WUHU216HW,2013-03-13 06:52:00,
2013-03-13 02:53:00,33.5,24.7,29.99,WNW,293,6.5,9.8,70,0.00,,,0.00,WUHU216HW,2013-03-13 06:53:00,
2013-03-13 02:55:00,33.5,24.7,29.99,NW,315,6.9,9.8,70,0.00,,,0.00,WUHU216HW,2013-03-13 06:55:00,
2013-03-13 02:56:00,33.5,24.7,29.99,NW,315,6.9,9.8,70,0.00,,,0.00,WUHU216HW,2013-03-13 06:56:00,
2013-03-13 02:57:00,33.5,24.7,29.98,NW,315,8.5,9.8,70,0.00,,,0.00,WUHU216HW,2013-03-13 06:57:00,
2013-03-13 02:58:00,33.5,24.7,29.98,NW,315,8.5,9.8,70,0.00,,,0.00,WUHU216HW,2013-03-13 06:58:00,
2013-03-13 03:00:00,33.3,24.6,29.99,NW,315,6.5,9.8,70,0.00,,,0.00,WUHU216HW,2013-03-13 07:00:00,
2013-03-13 03:01:00,33.3,24.6,29.99,NW,315,7.4,9.8,70,0.00,,,0.00,WUHU216HW,2013-03-13 07:01:00,
2013-03-13 03:02:00,33.3,24.6,29.99,NW,315,7.4,8.5,70,0.00,,,0.00,WUHU216HW,2013-03-13 07:02:00,
2013-03-13 03:03:00,33.3,24.6,29.99,NW,315,7.6,8.5,70,0.00,,,0.00,WUHU216HW,2013-03-13 07:03:00,
2013-03-13 03:05:00,33.3,24.6,29.99,NW,315,6.5,8.5,70,0.00,,,0.00,WUHU216HW,2013-03-13 07:05:00,
2013-03-13 03:06:00,33.3,24.6,29.99,WNW,293,7.4,8.5,70,0.00,,,0.00,WUHU216HW,2013-03-13 07:06:00,
2013-03-13 03:08:00,33.3,24.6,29.99,NW,315,6.9,7.6,70,0.00,,,0.00,WUHU216HW,2013-03-13 07:08:00,
2013-03-13 03:10:00,33.3,24.2,29.99,NW,315,6.0,7.6,69,0.00,,,0.00,WUHU216HW,2013-03-13 07:10:00,
2013-03-13 03:11:00,33.3,24.6,29.99,WNW,293,6.3,7.6,70,0.00,,,0.00,WUHU216HW,2013-03-13 07:11:00,
2013-03-13 03:13:00,33.3,24.6,29.99,NW,315,5.4,7.4,70,0.00,,,0.00,WUHU216HW,2013-03-13 07:13:00,
2013-03-13 03:16:00,33.1,24.0,29.99,NW,315,6.3,7.4,69,0.00,,,0.00,WUHU216HW,2013-03-13 07:16:00,
2013-03-13 03:17:00,33.1,24.4,29.99,NNW,338,4.9,6.9,70,0.00,,,0.00,WUHU216HW,2013-03-13 07:17:00,
2013-03-13 03:18:00,33.1,24.4,29.99,NNW,338,4.9,6.9,70,0.00,,,0.00,WUHU216HW,2013-03-13 07:18:00,
2013-03-13 03:21:00,33.1,24.0,29.99,WNW,293,3.4,6.3,69,0.00,,,0.00,WUHU216HW,2013-03-13 07:21:00,
2013-03-13 03:22:00,33.1,24.4,29.99,WNW,293,3.4,6.3,70,0.00,,,0.00,WUHU216HW,2013-03-13 07:22:00,
2013-03-13 03:23:00,33.1,24.4,29.99,WNW,293,3.4,6.3,70,0.00,,,0.00,WUHU216HW,2013-03-13 07:23:00,
2013-03-13 03:26:00,32.9,24.2,29.99,North,0,5.8,6.9,70,0.00,,,0.00,WUHU216HW,2013-03-13 07:26:00,
2013-03-13 03:27:00,32.9,24.2,29.99,WNW,293,4.7,6.9,70,0.00,,,0.00,WUHU216HW,2013-03-13 07:27:00,
2013-03-13 03:28:00,32.9,24.2,29.99,WNW,293,4.7,6.9,70,0.00,,,0.00,WUHU216HW,2013-03-13 07:28:00,
2013-03-13 03:31:00,32.9,23.9,29.98,WSW,248,5.8,6.9,69,0.00,,,0.00,WUHU216HW,2013-03-13 07:31:00,
2013-03-13 03:32:00,32.9,24.2,29.99,WNW,293,6.9,6.9,70,0.00,,,0.00,WUHU216HW,2013-03-13 07:32:00,
2013-03-13 03:33:00,32.9,24.2,29.98,WNW,293,4.7,6.9,70,0.00,,,0.00,WUHU216HW,2013-03-13 07:33:00,
2013-03-13 03:34:00,32.9,24.2,29.98,WNW,293,4.7,6.9,70,0.00,,,0.00,WUHU216HW,2013-03-13 07:34:00,
2013-03-13 03:36:00,32.8,23.7,29.98,West,270,3.4,6.9,69,0.00,,,0.00,WUHU216HW,2013-03-13 07:36:00,
2013-03-13 03:37:00,32.8,24.0,29.98,West,270,3.4,6.9,70,0.00,,,0.00,WUHU216HW,2013-03-13 07:37:00,
2013-03-13 03:38:00,32.8,24.0,29.98,NNW,338,4.7,6.9,70,0.00,,,0.00,WUHU216HW,2013-03-13 07:38:00,
2013-03-13 03:39:00,32.8,24.0,29.98,NNW,338,4.7,6.9,70,0.00,,,0.00,WUHU216HW,2013-03-13 07:39:00,
2013-03-13 03:41:00,32.8,23.7,29.98,West,270,5.4,6.9,69,0.00,,,0.00,WUHU216HW,2013-03-13 07:41:00,
2013-03-13 03:42:00,32.8,24.0,29.98,West,270,4.0,5.8,70,0.00,,,0.00,WUHU216HW,2013-03-13 07:42:00,
2013-03-13 03:43:00,32.8,23.7,29.98,WNW,293,5.4,5.8,69,0.00,,,0.00,WUHU216HW,2013-03-13 07:43:00,
2013-03-13 03:44:00,32.8,24.0,29.98,WSW,248,3.6,5.8,70,0.00,,,0.00,WUHU216HW,2013-03-13 07:44:00,
2013-03-13 03:46:00,32.8,23.7,29.98,WNW,293,4.9,5.4,69,0.00,,,0.00,WUHU216HW,2013-03-13 07:46:00,
2013-03-13 03:47:00,32.8,23.7,29.98,WNW,293,4.3,5.4,69,0.00,,,0.00,WUHU216HW,2013-03-13 07:47:00,
2013-03-13 03:48:00,32.8,24.0,29.98,NNW,338,4.7,5.4,70,0.00,,,0.00,WUHU216HW,2013-03-13 07:48:00,
2013-03-13 03:49:00,32.8,24.0,29.98,NNW,338,4.7,5.4,70,0.00,,,0.00,WUHU216HW,2013-03-13 07:49:00,
2013-03-13 03:51:00,32.8,24.0,29.98,WNW,293,3.6,5.4,70,0.00,,,0.00,WUHU216HW,2013-03-13 07:51:00,
2013-03-13 03:53:00,32.8,23.7,29.98,West,270,5.1,5.4,69,0.00,,,0.00,WUHU216HW,2013-03-13 07:53:00,
2013-03-13 03:54:00,32.8,24.0,29.98,WNW,293,4.7,5.1,70,0.00,,,0.00,WUHU216HW,2013-03-13 07:54:00,
2013-03-13 03:57:00,32.8,24.0,29.98,NW,315,4.5,5.1,70,0.00,,,0.00,WUHU216HW,2013-03-13 07:57:00,
2013-03-13 03:58:00,32.8,24.0,29.98,West,270,5.4,5.4,70,0.00,,,0.00,WUHU216HW,2013-03-13 07:58:00,
2013-03-13 03:59:00,32.8,24.0,29.98,WNW,293,5.8,5.8,70,0.00,,,0.00,WUHU216HW,2013-03-13 07:59:00,
2013-03-13 04:00:00,32.6,23.5,29.98,NW,315,4.7,5.8,69,0.00,,,0.00,WUHU216HW,2013-03-13 08:00:00,
2013-03-13 04:02:00,32.6,23.9,29.98,WNW,293,4.0,5.8,70,0.00,,,0.00,WUHU216HW,2013-03-13 08:02:00,
2013-03-13 04:03:00,32.6,23.9,29.98,NW,315,5.1,5.8,70,0.00,,,0.00,WUHU216HW,2013-03-13 08:03:00,
2013-03-13 04:04:00,32.6,23.9,29.99,NW,315,5.1,5.8,70,0.00,,,0.00,WUHU216HW,2013-03-13 08:04:00,
2013-03-13 04:08:00,32.6,23.9,29.99,NW,315,4.9,5.8,70,0.00,,,0.00,WUHU216HW,2013-03-13 08:08:00,
2013-03-13 04:09:00,32.6,23.9,29.99,NW,315,5.4,5.6,70,0.00,,,0.00,WUHU216HW,2013-03-13 08:09:00,
2013-03-13 04:13:00,32.4,23.8,29.99,WNW,293,4.7,5.8,70,0.00,,,0.00,WUHU216HW,2013-03-13 08:13:00,
2013-03-13 04:15:00,32.4,23.8,29.98,West,270,5.4,5.8,70,0.00,,,0.00,WUHU216HW,2013-03-13 08:15:00,
2013-03-13 04:18:00,32.4,23.8,29.98,WNW,293,4.0,5.8,70,0.00,,,0.00,WUHU216HW,2013-03-13 08:18:00,
2013-03-13 04:20:00,32.4,23.8,29.98,WNW,293,4.0,5.4,70,0.00,,,0.00,WUHU216HW,2013-03-13 08:20:00,
2013-03-13 04:23:00,32.4,23.8,29.98,NW,315,5.4,5.4,70,0.00,,,0.00,WUHU216HW,2013-03-13 08:23:00,
2013-03-13 04:24:00,32.4,23.8,29.98,NW,315,5.4,5.4,70,0.00,,,0.00,WUHU216HW,2013-03-13 08:24:00,
2013-03-13 04:25:00,32.4,23.8,29.98,NNW,338,3.6,5.4,70,0.00,,,0.00,WUHU216HW,2013-03-13 08:25:00,
2013-03-13 04:28:00,32.4,23.8,29.98,WNW,293,4.0,5.4,70,0.00,,,0.00,WUHU216HW,2013-03-13 08:28:00,
2013-03-13 04:29:00,32.2,23.6,29.98,NNW,338,4.0,5.4,70,0.00,,,0.00,WUHU216HW,2013-03-13 08:29:00,
2013-03-13 04:30:00,32.2,23.6,29.98,NNW,338,4.0,5.4,70,0.00,,,0.00,WUHU216HW,2013-03-13 08:30:00,
2013-03-13 04:33:00,32.2,23.6,29.98,West,270,3.8,4.5,70,0.00,,,0.00,WUHU216HW,2013-03-13 08:33:00,
2013-03-13 04:34:00,32.2,23.6,29.98,West,270,3.8,4.5,70,0.00,,,0.00,WUHU216HW,2013-03-13 08:34:00,
2013-03-13 04:35:00,32.2,23.6,29.98,NW,315,4.7,4.7,70,0.00,,,0.00,WUHU216HW,2013-03-13 08:35:00,
2013-03-13 04:38:00,32.2,23.6,29.98,NW,315,6.3,6.3,70,0.00,,,0.00,WUHU216HW,2013-03-13 08:38:00,
2013-03-13 04:39:00,32.2,23.6,29.98,NW,315,6.3,6.3,70,0.00,,,0.00,WUHU216HW,2013-03-13 08:39:00,
2013-03-13 04:40:00,32.2,23.6,29.98,NW,315,3.4,6.3,70,0.00,,,0.00,WUHU216HW,2013-03-13 08:40:00,
2013-03-13 04:44:00,32.2,23.6,29.98,West,270,4.7,6.3,70,0.00,,,0.00,WUHU216HW,2013-03-13 08:44:00,
2013-03-13 04:45:00,32.4,23.8,29.98,WNW,293,3.1,6.3,70,0.00,,,0.00,WUHU216HW,2013-03-13 08:45:00,
2013-03-13 04:49:00,32.2,23.6,29.98,WSW,248,3.1,4.7,70,0.00,,,0.00,WUHU216HW,2013-03-13 08:49:00,
2013-03-13 04:50:00,32.2,23.6,29.98,NW,315,2.5,4.7,70,0.00,,,0.00,WUHU216HW,2013-03-13 08:50:00,
2013-03-13 04:54:00,32.2,23.6,29.98,NW,315,3.1,3.1,70,0.00,,,0.00,WUHU216HW,2013-03-13 08:54:00,
2013-03-13 04:55:00,32.2,23.6,29.98,North,0,1.1,3.1,70,0.00,,,0.00,WUHU216HW,2013-03-13 08:55:00,
2013-03-13 04:59:00,32.0,23.4,29.98,WSW,248,1.8,3.1,70,0.00,,,0.00,WUHU216HW,2013-03-13 08:59:00,
2013-03-13 05:00:00,32.0,23.4,29.98,West,270,0.7,3.1,70,0.00,,,0.00,WUHU216HW,2013-03-13 09:00:00,
2013-03-13 05:04:00,32.0,23.4,29.98,WNW,293,1.1,5.4,70,0.00,,,0.00,WUHU216HW,2013-03-13 09:04:00,
2013-03-13 05:05:00,32.0,23.4,29.98,NW,315,1.8,5.4,70,0.00,,,0.00,WUHU216HW,2013-03-13 09:05:00,
2013-03-13 05:06:00,32.0,23.4,29.98,NNW,338,2.2,5.4,70,0.00,,,0.00,WUHU216HW,2013-03-13 09:06:00,
2013-03-13 05:09:00,32.0,23.4,29.98,WNW,293,0.9,5.4,70,0.00,,,0.00,WUHU216HW,2013-03-13 09:09:00,
2013-03-13 05:10:00,32.0,23.4,29.98,West,270,3.4,5.4,70,0.00,,,0.00,WUHU216HW,2013-03-13 09:10:00,
2013-03-13 05:11:00,32.0,23.4,29.98,West,270,1.1,5.4,70,0.00,,,0.00,WUHU216HW,2013-03-13 09:11:00,
2013-03-13 05:14:00,31.9,23.2,29.98,WNW,293,2.7,3.4,70,0.00,,,0.00,WUHU216HW,2013-03-13 09:14:00,
2013-03-13 05:15:00,31.9,23.2,29.98,WNW,293,2.7,3.4,70,0.00,,,0.00,WUHU216HW,2013-03-13 09:15:00,
2013-03-13 05:16:00,31.9,23.2,29.98,West,270,2.2,3.4,70,0.00,,,0.00,WUHU216HW,2013-03-13 09:16:00,
2013-03-13 05:19:00,31.7,23.4,29.98,WSW,248,1.1,3.4,71,0.00,,,0.00,WUHU216HW,2013-03-13 09:19:00,
2013-03-13 05:20:00,31.7,23.4,29.98,WSW,248,1.1,2.9,71,0.00,,,0.00,WUHU216HW,2013-03-13 09:20:00,
2013-03-13 05:22:00,31.7,23.4,29.98,WNW,293,0.4,2.9,71,0.00,,,0.00,WUHU216HW,2013-03-13 09:22:00,
2013-03-13 05:24:00,31.7,23.4,29.98,WNW,293,0.9,2.9,71,0.00,,,0.00,WUHU216HW,2013-03-13 09:24:00,
2013-03-13 05:25:00,31.7,23.4,29.98,WNW,293,0.9,2.9,71,0.00,,,0.00,WUHU216HW,2013-03-13 09:25:00,
2013-03-13 05:26:00,31.7,23.4,29.98,WNW,293,1.8,2.0,71,0.00,,,0.00,WUHU216HW,2013-03-13 09:26:00,
2013-03-13 05:27:00,31.5,23.2,29.98,WNW,293,1.8,2.0,71,0.00,,,0.00,WUHU216HW,2013-03-13 09:27:00,
2013-03-13 05:29:00,31.5,23.2,29.98,West,270,1.1,2.0,71,0.00,,,0.00,WUHU216HW,2013-03-13 09:29:00,
2013-03-13 05:30:00,31.5,23.2,29.98,West,270,1.1,2.0,71,0.00,,,0.00,WUHU216HW,2013-03-13 09:30:00,
2013-03-13 05:32:00,31.5,23.2,29.98,West,270,1.8,2.0,71,0.00,,,0.00,WUHU216HW,2013-03-13 09:32:00,
2013-03-13 05:34:00,31.5,23.2,29.98,WNW,293,1.6,2.0,71,0.00,,,0.00,WUHU216HW,2013-03-13 09:34:00,
2013-03-13 05:35:00,31.5,23.2,29.98,WNW,293,1.6,2.0,71,0.00,,,0.00,WUHU216HW,2013-03-13 09:35:00,
2013-03-13 05:37:00,31.7,23.4,29.98,WSW,248,1.8,2.0,71,0.00,,,0.00,WUHU216HW,2013-03-13 09:37:00,
2013-03-13 05:39:00,31.5,23.5,29.99,West,270,1.1,1.8,72,0.00,,,0.00,WUHU216HW,2013-03-13 09:39:00,
2013-03-13 05:40:00,31.5,23.5,29.99,West,270,1.1,1.8,72,0.00,,,0.00,WUHU216HW,2013-03-13 09:40:00,
2013-03-13 05:42:00,31.5,23.5,29.98,WNW,293,0.7,1.8,72,0.00,,,0.00,WUHU216HW,2013-03-13 09:42:00,
2013-03-13 05:43:00,31.5,23.5,29.98,WNW,293,0.7,1.8,72,0.00,,,0.00,WUHU216HW,2013-03-13 09:43:00,
2013-03-13 05:44:00,31.5,23.5,29.99,NW,315,1.6,1.8,72,0.00,,,0.00,WUHU216HW,2013-03-13 09:44:00,
2013-03-13 05:45:00,31.5,23.5,29.99,NW,315,1.6,1.8,72,0.00,,,0.00,WUHU216HW,2013-03-13 09:45:00,
2013-03-13 05:48:00,31.3,23.1,29.99,NW,315,1.1,1.8,71,0.00,,,0.00,WUHU216HW,2013-03-13 09:48:00,
2013-03-13 05:50:00,31.3,23.1,29.98,NW,315,1.6,1.8,71,0.00,,,0.00,WUHU216HW,2013-03-13 09:50:00,
2013-03-13 05:53:00,31.3,23.1,29.98,WNW,293,1.8,2.0,71,0.00,,,0.00,WUHU216HW,2013-03-13 09:53:00,
2013-03-13 05:55:00,31.3,23.1,29.99,West,270,2.0,2.0,71,0.00,,,0.00,WUHU216HW,2013-03-13 09:55:00,
2013-03-13 05:58:00,31.3,23.1,29.99,WSW,248,0.7,2.0,71,0.00,,,0.00,WUHU216HW,2013-03-13 09:58:00,
2013-03-13 06:00:00,31.3,23.1,29.99,West,270,1.1,2.0,71,0.00,,,0.00,WUHU216HW,2013-03-13 10:00:00,
2013-03-13 06:03:00,31.3,23.3,29.99,NW,315,1.1,2.0,72,0.00,,,0.00,WUHU216HW,2013-03-13 10:03:00,
2013-03-13 06:04:00,31.3,23.3,29.99,NW,315,2.2,2.2,72,0.00,,,0.00,WUHU216HW,2013-03-13 10:04:00,
2013-03-13 06:05:00,31.3,23.3,29.99,WNW,293,1.1,2.2,72,0.00,,,0.00,WUHU216HW,2013-03-13 10:05:00,
2013-03-13 06:08:00,31.1,22.9,29.99,NW,315,1.8,2.5,71,0.00,,,0.00,WUHU216HW,2013-03-13 10:08:00,
2013-03-13 06:09:00,31.1,22.9,29.99,NW,315,1.8,2.5,71,0.00,,,0.00,WUHU216HW,2013-03-13 10:09:00,
2013-03-13 06:10:00,31.1,23.1,29.99,WNW,293,2.2,2.5,72,0.00,,,0.00,WUHU216HW,2013-03-13 10:10:00,
2013-03-13 06:11:00,31.1,23.1,29.99,WNW,293,2.2,2.5,72,0.00,,,0.00,WUHU216HW,2013-03-13 10:11:00,
2013-03-13 06:13:00,31.1,23.1,29.99,West,270,2.5,2.5,72,0.00,,,0.00,WUHU216HW,2013-03-13 10:13:00,
2013-03-13 06:14:00,31.1,23.1,29.99,WNW,293,2.5,2.5,72,0.00,,,0.00,WUHU216HW,2013-03-13 10:14:00,
2013-03-13 06:15:00,31.1,23.1,29.99,WNW,293,2.2,2.5,72,0.00,,,0.00,WUHU216HW,2013-03-13 10:15:00,
2013-03-13 06:16:00,31.1,23.1,29.99,WNW,293,2.2,2.5,72,0.00,,,0.00,WUHU216HW,2013-03-13 10:16:00,
2013-03-13 06:18:00,31.1,23.1,29.99,West,270,1.8,2.5,72,0.00,,,0.00,WUHU216HW,2013-03-13 10:18:00,
2013-03-13 06:19:00,31.0,23.0,29.99,West,270,1.1,2.5,72,0.00,,,0.00,WUHU216HW,2013-03-13 10:19:00,
2013-03-13 06:20:00,31.0,23.0,29.99,West,270,1.8,2.5,72,0.00,,,0.00,WUHU216HW,2013-03-13 10:20:00,
2013-03-13 06:21:00,31.0,23.0,29.99,West,270,1.6,2.5,72,0.00,,,0.00,WUHU216HW,2013-03-13 10:21:00,
2013-03-13 06:23:00,31.0,23.0,30.00,WSW,248,2.0,2.5,72,0.00,,,0.00,WUHU216HW,2013-03-13 10:23:00,
2013-03-13 06:24:00,31.0,23.0,30.00,WSW,248,1.3,2.2,72,0.00,,,0.00,WUHU216HW,2013-03-13 10:24:00,
2013-03-13 06:26:00,31.0,23.0,29.99,West,270,0.4,2.0,72,0.00,,,0.00,WUHU216HW,2013-03-13 10:26:00,
2013-03-13 06:28:00,30.8,22.8,29.99,NW,315,0.2,2.0,72,0.00,,,0.00,WUHU216HW,2013-03-13 10:28:00,
2013-03-13 06:30:00,30.8,22.8,29.99,SSW,203,1.6,2.0,72,0.00,,,0.00,WUHU216HW,2013-03-13 10:30:00,
2013-03-13 06:31:00,30.8,23.1,29.99,West,270,0.4,2.0,73,0.00,,,0.00,WUHU216HW,2013-03-13 10:31:00,
2013-03-13 06:32:00,30.8,23.1,29.99,West,270,0.4,2.0,73,0.00,,,0.00,WUHU216HW,2013-03-13 10:32:00,
2013-03-13 06:34:00,30.8,23.1,30.00,West,270,0.4,2.5,73,0.00,,,0.00,WUHU216HW,2013-03-13 10:34:00,
2013-03-13 06:35:00,30.8,23.1,30.00,West,270,0.4,2.5,73,0.00,,,0.00,WUHU216HW,2013-03-13 10:35:00,
2013-03-13 06:36:00,30.6,23.0,30.00,WSW,248,1.3,2.5,73,0.00,,,0.00,WUHU216HW,2013-03-13 10:36:00,
2013-03-13 06:37:00,30.6,23.0,30.00,WSW,248,1.3,2.5,73,0.00,,,0.00,WUHU216HW,2013-03-13 10:37:00,
2013-03-13 06:39:00,30.6,23.0,29.99,West,270,2.5,2.5,73,0.00,,,0.00,WUHU216HW,2013-03-13 10:39:00,
2013-03-13 06:40:00,30.6,23.0,29.99,West,270,2.5,2.5,73,0.00,,,0.00,WUHU216HW,2013-03-13 10:40:00,
2013-03-13 06:41:00,30.6,23.0,29.99,West,270,1.1,2.5,73,0.00,,,0.00,WUHU216HW,2013-03-13 10:41:00,
2013-03-13 06:42:00,30.6,23.0,29.99,West,270,1.1,2.5,73,0.00,,,0.00,WUHU216HW,2013-03-13 10:42:00,
2013-03-13 06:44:00,30.6,23.0,30.00,WNW,293,1.8,2.5,73,0.00,,,0.00,WUHU216HW,2013-03-13 10:44:00,
2013-03-13 06:45:00,30.6,23.0,29.99,West,270,0.2,2.5,73,0.00,,,0.00,WUHU216HW,2013-03-13 10:45:00,
2013-03-13 06:47:00,30.4,22.8,30.00,WSW,248,0.4,2.5,73,0.00,,,0.00,WUHU216HW,2013-03-13 10:47:00,
2013-03-13 06:49:00,30.4,23.0,30.00,North,0,1.3,2.2,74,0.00,,,0.00,WUHU216HW,2013-03-13 10:49:00,
2013-03-13 06:50:00,30.4,23.0,30.00,West,270,1.6,2.2,74,0.00,,,0.00,WUHU216HW,2013-03-13 10:50:00,
2013-03-13 06:52:00,30.4,23.0,30.00,West,270,1.1,2.2,74,0.00,,,0.00,WUHU216HW,2013-03-13 10:52:00,
2013-03-13 06:54:00,30.4,23.0,29.99,WSW,248,2.5,2.5,74,0.00,,,0.00,WUHU216HW,2013-03-13 10:54:00,
2013-03-13 06:55:00,30.4,23.0,29.99,WNW,293,1.1,2.5,74,0.00,,,0.00,WUHU216HW,2013-03-13 10:55:00,
2013-03-13 06:57:00,30.4,23.0,29.99,West,270,0.7,2.5,74,0.00,,,0.00,WUHU216HW,2013-03-13 10:57:00,
2013-03-13 06:59:00,30.4,23.0,29.99,West,270,0.4,2.5,74,0.00,,,0.00,WUHU216HW,2013-03-13 10:59:00,
2013-03-13 07:00:00,30.4,23.0,29.99,WSW,248,1.1,2.5,74,0.00,,,0.00,WUHU216HW,2013-03-13 11:00:00,
2013-03-13 07:02:00,30.4,23.0,29.99,NW,315,0.9,2.5,74,0.00,,,0.00,WUHU216HW,2013-03-13 11:02:00,
2013-03-13 07:05:00,30.2,22.9,30.00,WSW,248,2.5,2.5,74,0.00,,,0.00,WUHU216HW,2013-03-13 11:05:00,
2013-03-13 07:07:00,30.2,23.2,30.00,West,270,2.2,2.5,75,0.00,,,0.00,WUHU216HW,2013-03-13 11:07:00,
2013-03-13 07:10:00,30.2,23.2,30.00,NNW,338,1.1,2.5,75,0.00,,,0.00,WUHU216HW,2013-03-13 11:10:00,
2013-03-13 07:12:00,30.2,23.6,30.00,West,270,3.4,3.4,76,0.00,,,0.00,WUHU216HW,2013-03-13 11:12:00,
2013-03-13 07:15:00,30.2,23.6,30.00,West,270,2.0,3.4,76,0.00,,,0.00,WUHU216HW,2013-03-13 11:15:00,
2013-03-13 07:16:00,30.2,23.6,30.00,West,270,2.0,3.4,76,0.00,,,0.00,WUHU216HW,2013-03-13 11:16:00,
2013-03-13 07:17:00,30.4,23.8,30.00,WSW,248,2.5,3.4,76,0.00,,,0.00,WUHU216HW,2013-03-13 11:17:00,
2013-03-13 07:20:00,30.4,23.8,30.00,West,270,3.6,3.6,76,0.00,,,0.00,WUHU216HW,2013-03-13 11:20:00,
2013-03-13 07:21:00,30.4,23.8,30.00,West,270,2.5,3.6,76,0.00,,,0.00,WUHU216HW,2013-03-13 11:21:00,
2013-03-13 07:22:00,30.4,23.8,30.00,NW,315,4.5,4.5,76,0.00,,,0.00,WUHU216HW,2013-03-13 11:22:00,
2013-03-13 07:23:00,30.6,24.0,30.01,WNW,293,4.0,4.5,76,0.00,,,0.00,WUHU216HW,2013-03-13 11:23:00,
2013-03-13 07:25:00,30.6,24.0,30.01,West,270,2.7,4.5,76,0.00,,,0.00,WUHU216HW,2013-03-13 11:25:00,
2013-03-13 07:26:00,30.6,24.0,30.01,WNW,293,2.5,4.5,76,0.00,,,0.00,WUHU216HW,2013-03-13 11:26:00,
2013-03-13 07:28:00,30.6,24.0,30.01,WNW,293,2.5,4.5,76,0.00,,,0.00,WUHU216HW,2013-03-13 11:28:00,
2013-03-13 07:30:00,30.6,24.0,30.01,WNW,293,2.9,4.5,76,0.00,,,0.00,WUHU216HW,2013-03-13 11:30:00,
2013-03-13 07:32:00,30.8,24.1,30.00,WNW,293,3.1,4.0,76,0.00,,,0.00,WUHU216HW,2013-03-13 11:32:00,
2013-03-13 07:33:00,30.6,24.0,30.01,West,270,2.9,4.0,76,0.00,,,0.00,WUHU216HW,2013-03-13 11:33:00,
2013-03-13 07:35:00,30.8,24.1,30.00,WNW,293,3.8,4.0,76,0.00,,,0.00,WUHU216HW,2013-03-13 11:35:00,
2013-03-13 07:37:00,30.8,24.1,30.00,West,270,2.5,4.0,76,0.00,,,0.00,WUHU216HW,2013-03-13 11:37:00,
2013-03-13 07:38:00,30.8,24.1,30.00,West,270,2.5,4.0,76,0.00,,,0.00,WUHU216HW,2013-03-13 11:38:00,
2013-03-13 07:39:00,30.8,24.1,30.00,West,270,4.0,4.0,76,0.00,,,0.00,WUHU216HW,2013-03-13 11:39:00,
2013-03-13 07:40:00,30.8,23.8,30.00,WNW,293,3.4,4.0,75,0.00,,,0.00,WUHU216HW,2013-03-13 11:40:00,
2013-03-13 07:42:00,30.8,23.8,30.00,West,270,3.8,4.5,75,0.00,,,0.00,WUHU216HW,2013-03-13 11:42:00,
2013-03-13 07:43:00,30.8,23.8,30.00,West,270,3.8,4.5,75,0.00,,,0.00,WUHU216HW,2013-03-13 11:43:00,
2013-03-13 07:44:00,30.8,23.8,30.01,WNW,293,3.4,4.5,75,0.00,,,0.00,WUHU216HW,2013-03-13 11:44:00,
2013-03-13 07:45:00,31.0,23.9,30.00,West,270,3.8,4.5,75,0.00,,,0.00,WUHU216HW,2013-03-13 11:45:00,
2013-03-13 07:47:00,31.0,23.9,30.00,West,270,2.5,4.5,75,0.00,,,0.00,WUHU216HW,2013-03-13 11:47:00,
2013-03-13 07:48:00,31.0,23.9,30.01,West,270,2.5,4.5,75,0.00,,,0.00,WUHU216HW,2013-03-13 11:48:00,
2013-03-13 07:49:00,31.0,23.9,30.01,West,270,2.5,4.5,75,0.00,,,0.00,WUHU216HW,2013-03-13 11:49:00,
2013-03-13 07:50:00,31.0,23.9,30.01,West,270,2.7,4.5,75,0.00,,,0.00,WUHU216HW,2013-03-13 11:50:00,
2013-03-13 07:52:00,31.0,23.9,30.01,WNW,293,2.9,3.8,75,0.00,,,0.00,WUHU216HW,2013-03-13 11:52:00,
2013-03-13 07:53:00,31.0,23.9,30.01,West,270,2.7,3.8,75,0.00,,,0.00,WUHU216HW,2013-03-13 11:53:00,
2013-03-13 07:54:00,31.0,23.9,30.01,West,270,2.7,3.8,75,0.00,,,0.00,WUHU216HW,2013-03-13 11:54:00,
2013-03-13 07:55:00,31.0,23.9,30.01,West,270,2.5,3.8,75,0.00,,,0.00,WUHU216HW,2013-03-13 11:55:00,
2013-03-13 07:58:00,31.0,23.9,30.01,SSW,203,3.1,3.8,75,0.00,,,0.00,WUHU216HW,2013-03-13 11:58:00,
2013-03-13 07:59:00,31.1,24.1,30.01,WNW,293,2.9,3.8,75,0.00,,,0.00,WUHU216HW,2013-03-13 11:59:00,
2013-03-13 08:00:00,31.1,24.1,30.01,West,270,2.0,3.1,75,0.00,,,0.00,WUHU216HW,2013-03-13 12:00:00,
2013-03-13 08:03:00,31.1,24.1,30.01,WSW,248,1.8,3.1,75,0.00,,,0.00,WUHU216HW,2013-03-13 12:03:00,
2013-03-13 08:04:00,31.1,24.1,30.01,WNW,293,2.5,3.1,75,0.00,,,0.00,WUHU216HW,2013-03-13 12:04:00,
2013-03-13 08:05:00,31.1,24.1,30.00,West,270,2.7,3.1,75,0.00,,,0.00,WUHU216HW,2013-03-13 12:05:00,
2013-03-13 08:08:00,31.3,24.3,30.00,West,270,2.5,2.9,75,0.00,,,0.00,WUHU216HW,2013-03-13 12:08:00,
2013-03-13 08:09:00,31.3,24.3,30.00,WNW,293,1.6,2.7,75,0.00,,,0.00,WUHU216HW,2013-03-13 12:09:00,
2013-03-13 08:10:00,31.3,24.3,30.00,West,270,2.0,2.7,75,0.00,,,0.00,WUHU216HW,2013-03-13 12:10:00,
2013-03-13 08:13:00,31.7,24.7,30.00,WNW,293,3.4,3.4,75,0.00,,,0.00,WUHU216HW,2013-03-13 12:13:00,
2013-03-13 08:14:00,31.7,24.7,30.00,West,270,3.4,3.4,75,0.00,,,0.00,WUHU216HW,2013-03-13 12:14:00,
2013-03-13 08:15:00,31.7,24.7,30.00,West,270,2.2,3.4,75,0.00,,,0.00,WUHU216HW,2013-03-13 12:15:00,
2013-03-13 08:16:00,31.7,24.7,30.00,West,270,2.2,3.4,75,0.00,,,0.00,WUHU216HW,2013-03-13 12:16:00,
2013-03-13 08:18:00,31.9,24.8,30.00,West,270,4.5,4.5,75,0.00,,,0.00,WUHU216HW,2013-03-13 12:18:00,
2013-03-13 08:19:00,31.9,24.8,30.00,West,270,2.5,4.5,75,0.00,,,0.00,WUHU216HW,2013-03-13 12:19:00,
2013-03-13 08:20:00,31.9,24.8,30.00,WNW,293,2.9,4.5,75,0.00,,,0.00,WUHU216HW,2013-03-13 12:20:00,
2013-03-13 08:21:00,31.9,24.8,30.00,WNW,293,2.9,4.5,75,0.00,,,0.00,WUHU216HW,2013-03-13 12:21:00,
2013-03-13 08:24:00,32.0,25.0,30.00,West,270,2.0,4.5,75,0.00,,,0.00,WUHU216HW,2013-03-13 12:24:00,
2013-03-13 08:25:00,32.2,25.2,30.00,West,270,3.4,4.5,75,0.00,,,0.00,WUHU216HW,2013-03-13 12:25:00,
2013-03-13 08:26:00,32.2,25.2,30.00,West,270,3.4,4.5,75,0.00,,,0.00,WUHU216HW,2013-03-13 12:26:00,
2013-03-13 08:29:00,32.4,25.4,30.00,West,270,3.4,4.0,75,0.00,,,0.00,WUHU216HW,2013-03-13 12:29:00,
2013-03-13 08:30:00,32.4,25.4,30.00,West,270,3.6,4.0,75,0.00,,,0.00,WUHU216HW,2013-03-13 12:30:00,
2013-03-13 08:32:00,32.4,25.4,30.00,West,270,3.6,4.0,75,0.00,,,0.00,WUHU216HW,2013-03-13 12:32:00,
2013-03-13 08:34:00,32.6,25.5,30.00,West,270,4.3,4.3,75,0.00,,,0.00,WUHU216HW,2013-03-13 12:34:00,
2013-03-13 08:35:00,32.6,25.5,30.00,West,270,3.8,4.5,75,0.00,,,0.00,WUHU216HW,2013-03-13 12:35:00,
2013-03-13 08:37:00,32.6,25.5,30.00,West,270,3.4,4.5,75,0.00,,,0.00,WUHU216HW,2013-03-13 12:37:00,
2013-03-13 08:39:00,32.8,25.4,30.00,WSW,248,4.3,4.5,74,0.00,,,0.00,WUHU216HW,2013-03-13 12:39:00,
2013-03-13 08:40:00,32.8,25.4,30.00,WSW,248,4.3,4.5,74,0.00,,,0.00,WUHU216HW,2013-03-13 12:40:00,
2013-03-13 08:42:00,32.9,25.5,30.00,WSW,248,2.9,6.7,74,0.00,,,0.00,WUHU216HW,2013-03-13 12:42:00,
2013-03-13 08:44:00,33.1,25.7,30.00,WSW,248,2.5,6.7,74,0.00,,,0.00,WUHU216HW,2013-03-13 12:44:00,
2013-03-13 08:45:00,33.1,26.0,30.00,West,270,2.5,6.7,75,0.00,,,0.00,WUHU216HW,2013-03-13 12:45:00,
2013-03-13 08:47:00,33.1,26.0,30.00,WSW,248,3.4,6.7,75,0.00,,,0.00,WUHU216HW,2013-03-13 12:47:00,
2013-03-13 08:49:00,33.3,26.2,30.00,NW,315,1.1,6.7,75,0.00,,,0.00,WUHU216HW,2013-03-13 12:49:00,
2013-03-13 08:50:00,33.3,26.2,30.00,NW,315,6.3,6.3,75,0.00,,,0.00,WUHU216HW,2013-03-13 12:50:00,
2013-03-13 08:52:00,33.5,26.3,30.00,West,270,6.0,6.3,75,0.00,,,0.00,WUHU216HW,2013-03-13 12:52:00,
2013-03-13 08:54:00,33.7,26.5,30.00,West,270,2.7,6.3,75,0.00,,,0.00,WUHU216HW,2013-03-13 12:54:00,
2013-03-13 08:55:00,33.7,26.5,30.00,West,270,1.1,6.3,75,0.00,,,0.00,WUHU216HW,2013-03-13 12:55:00,
2013-03-13 08:56:00,33.7,26.5,30.00,West,270,1.1,6.3,75,0.00,,,0.00,WUHU216HW,2013-03-13 12:56:00,
2013-03-13 08:57:00,33.8,26.6,30.01,West,270,1.1,6.3,75,0.00,,,0.00,WUHU216HW,2013-03-13 12:57:00,
2013-03-13 08:59:00,34.0,26.8,30.01,WNW,293,4.0,6.0,75,0.00,,,0.00,WUHU216HW,2013-03-13 12:59:00,
2013-03-13 09:01:00,34.0,26.8,30.00,NW,315,0.7,6.0,75,0.00,,,0.00,WUHU216HW,2013-03-13 13:01:00,
2013-03-13 09:02:00,34.0,26.8,30.01,WSW,248,2.5,4.0,75,0.00,,,0.00,WUHU216HW,2013-03-13 13:02:00,
2013-03-13 09:04:00,34.2,27.0,30.01,WNW,293,2.7,4.0,75,0.00,,,0.00,WUHU216HW,2013-03-13 13:04:00,
2013-03-13 09:06:00,34.2,26.6,30.01,West,270,1.8,4.0,74,0.00,,,0.00,WUHU216HW,2013-03-13 13:06:00,
2013-03-13 09:08:00,34.2,26.6,30.01,SW,225,0.7,4.0,74,0.00,,,0.00,WUHU216HW,2013-03-13 13:08:00,
2013-03-13 09:10:00,34.4,26.8,30.01,West,270,2.9,2.9,74,0.00,,,0.00,WUHU216HW,2013-03-13 13:10:00,
2013-03-13 09:12:00,34.6,27.0,30.01,West,270,5.4,5.4,74,0.00,,,0.00,WUHU216HW,2013-03-13 13:12:00,
2013-03-13 09:13:00,34.7,27.2,30.01,West,270,3.4,5.4,74,0.00,,,0.00,WUHU216HW,2013-03-13 13:13:00,
2013-03-13 09:15:00,34.9,27.4,30.01,WSW,248,4.0,5.4,74,0.00,,,0.00,WUHU216HW,2013-03-13 13:15:00,
2013-03-13 09:17:00,34.9,27.4,30.01,NW,315,2.5,5.4,74,0.00,,,0.00,WUHU216HW,2013-03-13 13:17:00,
2013-03-13 09:18:00,35.3,27.5,30.01,WNW,293,2.9,6.5,73,0.00,,,0.00,WUHU216HW,2013-03-13 13:18:00,
2013-03-13 09:20:00,35.3,27.5,30.01,West,270,4.0,6.5,73,0.00,,,0.00,WUHU216HW,2013-03-13 13:20:00,
2013-03-13 09:22:00,35.3,27.5,30.01,SW,225,1.3,6.5,73,0.00,,,0.00,WUHU216HW,2013-03-13 13:22:00,
2013-03-13 09:24:00,35.5,27.6,30.01,West,270,0.9,6.5,73,0.00,,,0.00,WUHU216HW,2013-03-13 13:24:00,
2013-03-13 09:25:00,35.6,27.8,30.01,West,270,4.5,6.5,73,0.00,,,0.00,WUHU216HW,2013-03-13 13:25:00,
2013-03-13 09:27:00,35.6,27.8,30.01,WNW,293,2.9,4.5,73,0.00,,,0.00,WUHU216HW,2013-03-13 13:27:00,
2013-03-13 09:29:00,35.8,28.0,30.01,NNW,338,2.7,4.5,73,0.00,,,0.00,WUHU216HW,2013-03-13 13:29:00,
2013-03-13 09:30:00,35.8,28.0,30.01,West,270,4.3,4.5,73,0.00,,,0.00,WUHU216HW,2013-03-13 13:30:00,
2013-03-13 09:32:00,35.8,28.0,30.01,West,270,3.8,4.5,73,0.00,,,0.00,WUHU216HW,2013-03-13 13:32:00,
2013-03-13 09:34:00,35.8,28.0,30.00,West,270,4.9,4.9,73,0.00,,,0.00,WUHU216HW,2013-03-13 13:34:00,
2013-03-13 09:35:00,36.0,27.6,30.00,NW,315,7.8,7.8,71,0.00,,,0.00,WUHU216HW,2013-03-13 13:35:00,
2013-03-13 09:37:00,35.8,27.4,30.00,WNW,293,3.8,7.8,71,0.00,,,0.00,WUHU216HW,2013-03-13 13:37:00,
2013-03-13 09:39:00,35.8,27.4,30.01,West,270,2.7,7.8,71,0.00,,,0.00,WUHU216HW,2013-03-13 13:39:00,
2013-03-13 09:40:00,35.8,27.6,30.00,North,0,1.8,7.8,72,0.00,,,0.00,WUHU216HW,2013-03-13 13:40:00,
2013-03-13 09:43:00,35.8,27.6,30.00,WSW,248,2.7,7.8,72,0.00,,,0.00,WUHU216HW,2013-03-13 13:43:00,
2013-03-13 09:44:00,36.0,27.8,30.00,WSW,248,3.8,7.8,72,0.00,,,0.00,WUHU216HW,2013-03-13 13:44:00,
2013-03-13 09:47:00,36.2,28.0,30.00,West,270,2.5,5.1,72,0.00,,,0.00,WUHU216HW,2013-03-13 13:47:00,
2013-03-13 09:48:00,36.4,28.2,30.00,WSW,248,0.4,5.1,72,0.00,,,0.00,WUHU216HW,2013-03-13 13:48:00,
2013-03-13 09:49:00,36.4,28.2,30.00,West,270,4.7,4.7,72,0.00,,,0.00,WUHU216HW,2013-03-13 13:49:00,
2013-03-13 09:52:00,36.4,27.9,30.00,WSW,248,4.7,6.9,71,0.00,,,0.00,WUHU216HW,2013-03-13 13:52:00,
2013-03-13 09:53:00,36.5,28.1,30.00,WSW,248,2.0,6.9,71,0.00,,,0.00,WUHU216HW,2013-03-13 13:53:00,
2013-03-13 09:54:00,36.5,28.1,30.00,WNW,293,2.5,6.9,71,0.00,,,0.00,WUHU216HW,2013-03-13 13:54:00,
2013-03-13 09:57:00,36.7,28.3,30.00,North,0,2.2,6.9,71,0.00,,,0.00,WUHU216HW,2013-03-13 13:57:00,
2013-03-13 09:58:00,36.7,27.9,30.00,WNW,293,3.4,6.9,70,0.00,,,0.00,WUHU216HW,2013-03-13 13:58:00,
2013-03-13 09:59:00,36.7,27.9,30.00,West,270,1.3,6.9,70,0.00,,,0.00,WUHU216HW,2013-03-13 13:59:00,
2013-03-13 10:00:00,36.7,27.9,30.00,West,270,1.3,6.9,70,0.00,,,0.00,WUHU216HW,2013-03-13 14:00:00,
2013-03-13 10:02:00,36.9,28.1,30.00,WNW,293,2.0,4.5,70,0.00,,,0.00,WUHU216HW,2013-03-13 14:02:00,
2013-03-13 10:04:00,36.9,28.1,30.00,WNW,293,3.1,4.5,70,0.00,,,0.00,WUHU216HW,2013-03-13 14:04:00,
2013-03-13 10:05:00,37.1,28.3,30.00,WSW,248,6.9,6.9,70,0.00,,,0.00,WUHU216HW,2013-03-13 14:05:00,
2013-03-13 10:07:00,36.9,27.7,30.00,NW,315,3.8,6.9,69,0.00,,,0.00,WUHU216HW,2013-03-13 14:07:00,
2013-03-13 10:09:00,37.1,28.3,30.00,SSW,203,3.4,6.9,70,0.00,,,0.00,WUHU216HW,2013-03-13 14:09:00,
2013-03-13 10:10:00,37.1,28.3,30.00,WNW,293,3.4,6.9,70,0.00,,,0.00,WUHU216HW,2013-03-13 14:10:00,
2013-03-13 10:12:00,37.4,28.3,30.00,NNE,23,2.7,6.9,69,0.00,,,0.00,WUHU216HW,2013-03-13 14:12:00,
2013-03-13 10:14:00,37.6,28.5,30.00,NNW,338,1.8,6.9,69,0.00,,,0.00,WUHU216HW,2013-03-13 14:14:00,
2013-03-13 10:15:00,37.6,28.5,30.00,West,270,5.4,6.9,69,0.00,,,0.00,WUHU216HW,2013-03-13 14:15:00,
2013-03-13 10:17:00,37.8,28.5,30.00,West,270,2.7,5.4,69,0.00,,,0.00,WUHU216HW,2013-03-13 14:17:00,
2013-03-13 10:19:00,37.8,28.2,30.00,NNW,338,4.0,5.4,68,0.00,,,0.00,WUHU216HW,2013-03-13 14:19:00,
2013-03-13 10:20:00,38.0,28.4,30.00,North,0,4.0,5.4,68,0.00,,,0.00,WUHU216HW,2013-03-13 14:20:00,
2013-03-13 10:22:00,38.0,28.0,30.00,WSW,248,3.4,6.0,67,0.00,,,0.00,WUHU216HW,2013-03-13 14:22:00,
2013-03-13 10:24:00,38.2,28.5,30.00,NW,315,4.0,6.3,68,0.00,,,0.00,WUHU216HW,2013-03-13 14:24:00,
2013-03-13 10:25:00,38.2,28.5,30.00,West,270,2.5,6.3,68,0.00,,,0.00,WUHU216HW,2013-03-13 14:25:00,
2013-03-13 10:27:00,38.5,29.3,30.00,NNW,338,3.1,6.3,69,0.00,,,0.00,WUHU216HW,2013-03-13 14:27:00,
2013-03-13 10:29:00,38.7,29.0,30.00,North,0,7.6,7.6,68,0.00,,,0.00,WUHU216HW,2013-03-13 14:29:00,
2013-03-13 10:30:00,38.9,29.2,30.00,West,270,4.7,7.6,68,0.00,,,0.00,WUHU216HW,2013-03-13 14:30:00,
2013-03-13 10:31:00,38.9,29.2,30.00,West,270,4.7,7.6,68,0.00,,,0.00,WUHU216HW,2013-03-13 14:31:00,
2013-03-13 10:33:00,39.1,29.0,30.00,North,0,3.1,7.6,67,0.00,,,0.00,WUHU216HW,2013-03-13 14:33:00,
2013-03-13 10:34:00,39.2,29.1,30.00,WSW,248,5.1,7.6,67,0.00,,,0.00,WUHU216HW,2013-03-13 14:34:00,
2013-03-13 10:36:00,39.4,28.9,30.00,WNW,293,5.8,7.6,66,0.00,,,0.00,WUHU216HW,2013-03-13 14:36:00,
2013-03-13 10:38:00,39.6,29.1,30.00,West,270,3.4,7.6,66,0.00,,,0.00,WUHU216HW,2013-03-13 14:38:00,
2013-03-13 10:40:00,39.6,29.1,29.99,West,270,4.0,5.8,66,0.00,,,0.00,WUHU216HW,2013-03-13 14:40:00,
2013-03-13 10:41:00,39.6,29.1,30.00,West,270,4.5,5.8,66,0.00,,,0.00,WUHU216HW,2013-03-13 14:41:00,
2013-03-13 10:43:00,39.6,29.1,30.00,NNW,338,3.4,5.8,66,0.00,,,0.00,WUHU216HW,2013-03-13 14:43:00,
2013-03-13 10:45:00,40.0,29.4,29.99,NW,315,5.4,5.8,66,0.00,,,0.00,WUHU216HW,2013-03-13 14:45:00,
2013-03-13 10:46:00,40.0,29.4,29.99,NW,315,5.4,5.8,66,0.00,,,0.00,WUHU216HW,2013-03-13 14:46:00,
2013-03-13 10:48:00,39.4,28.5,29.99,NW,315,5.1,5.4,65,0.00,,,0.00,WUHU216HW,2013-03-13 14:48:00,
2013-03-13 10:50:00,39.2,28.4,29.99,SW,225,2.9,5.4,65,0.00,,,0.00,WUHU216HW,2013-03-13 14:50:00,
2013-03-13 10:51:00,39.2,28.4,29.99,SW,225,2.9,5.4,65,0.00,,,0.00,WUHU216HW,2013-03-13 14:51:00,
2013-03-13 10:52:00,39.2,28.4,29.99,SW,225,2.9,5.4,65,0.00,,,0.00,WUHU216HW,2013-03-13 14:52:00,
2013-03-13 10:53:00,38.7,28.6,29.99,West,270,4.7,5.4,67,0.00,,,0.00,WUHU216HW,2013-03-13 14:53:00,
2013-03-13 10:55:00,38.5,28.1,29.99,SE,135,4.9,5.4,66,0.00,,,0.00,WUHU216HW,2013-03-13 14:55:00,
2013-03-13 10:56:00,38.5,28.4,29.99,West,270,2.0,5.1,67,0.00,,,0.00,WUHU216HW,2013-03-13 14:56:00,
2013-03-13 10:57:00,38.5,28.4,29.99,West,270,2.0,5.1,67,0.00,,,0.00,WUHU216HW,2013-03-13 14:57:00,
2013-03-13 10:58:00,38.3,28.3,29.99,NW,315,2.0,4.9,67,0.00,,,0.00,WUHU216HW,2013-03-13 14:58:00,
2013-03-13 11:00:00,38.3,28.3,29.99,West,270,1.1,4.9,67,0.00,,,0.00,WUHU216HW,2013-03-13 15:00:00,
2013-03-13 11:02:00,38.3,28.3,29.99,West,270,3.4,4.9,67,0.00,,,0.00,WUHU216HW,2013-03-13 15:02:00,
2013-03-13 11:03:00,38.3,28.3,29.99,West,270,3.4,4.9,67,0.00,,,0.00,WUHU216HW,2013-03-13 15:03:00,
2013-03-13 11:05:00,38.2,28.2,29.99,West,270,3.4,4.5,67,0.00,,,0.00,WUHU216HW,2013-03-13 15:05:00,
2013-03-13 11:07:00,38.0,28.0,29.99,WSW,248,4.9,4.9,67,0.00,,,0.00,WUHU216HW,2013-03-13 15:07:00,
2013-03-13 11:08:00,38.0,28.0,29.99,WSW,248,4.9,4.9,67,0.00,,,0.00,WUHU216HW,2013-03-13 15:08:00,
2013-03-13 11:10:00,37.8,27.8,29.99,NW,315,2.5,4.9,67,0.00,,,0.00,WUHU216HW,2013-03-13 15:10:00,
2013-03-13 11:13:00,37.6,27.6,29.99,NW,315,2.9,4.9,67,0.00,,,0.00,WUHU216HW,2013-03-13 15:13:00,
2013-03-13 11:16:00,37.4,27.9,29.99,West,270,2.5,4.9,68,0.00,,,0.00,WUHU216HW,2013-03-13 15:16:00,
2013-03-13 11:18:00,37.3,27.7,29.99,NW,315,2.2,4.3,68,0.00,,,0.00,WUHU216HW,2013-03-13 15:18:00,
2013-03-13 11:21:00,37.1,27.9,29.99,NW,315,5.1,5.1,69,0.00,,,0.00,WUHU216HW,2013-03-13 15:21:00,
2013-03-13 11:23:00,37.1,27.9,29.99,West,270,5.8,5.8,69,0.00,,,0.00,WUHU216HW,2013-03-13 15:23:00,
2013-03-13 11:24:00,36.9,28.1,29.99,West,270,3.6,5.8,70,0.00,,,0.00,WUHU216HW,2013-03-13 15:24:00,
2013-03-13 11:26:00,36.9,28.1,29.99,West,270,4.0,5.8,70,0.00,,,0.00,WUHU216HW,2013-03-13 15:26:00,
2013-03-13 11:28:00,36.9,28.1,29.99,WNW,293,4.0,5.8,70,0.00,,,0.00,WUHU216HW,2013-03-13 15:28:00,
2013-03-13 11:29:00,37.1,28.6,29.99,NW,315,5.4,5.8,71,0.00,,,0.00,WUHU216HW,2013-03-13 15:29:00,
2013-03-13 11:31:00,37.1,28.6,29.99,NW,315,5.4,5.8,71,0.00,,,0.00,WUHU216HW,2013-03-13 15:31:00,
2013-03-13 11:33:00,37.4,27.9,29.99,NW,315,8.5,8.5,68,0.00,,,0.00,WUHU216HW,2013-03-13 15:33:00,
2013-03-13 11:34:00,37.6,27.6,29.99,West,270,5.1,8.5,67,0.00,,,0.00,WUHU216HW,2013-03-13 15:34:00,
2013-03-13 11:36:00,37.8,27.5,29.99,West,270,8.7,8.7,66,0.00,,,0.00,WUHU216HW,2013-03-13 15:36:00,
2013-03-13 11:38:00,37.8,27.5,29.99,NW,315,6.9,8.7,66,0.00,,,0.00,WUHU216HW,2013-03-13 15:38:00,
2013-03-13 11:39:00,38.2,27.7,29.99,West,270,6.5,8.7,66,0.00,,,0.00,WUHU216HW,2013-03-13 15:39:00,
2013-03-13 11:42:00,38.5,27.7,29.99,NW,315,6.7,10.1,65,0.00,,,0.00,WUHU216HW,2013-03-13 15:42:00,
2013-03-13 11:43:00,38.7,28.3,29.99,West,270,6.3,10.1,66,0.00,,,0.00,WUHU216HW,2013-03-13 15:43:00,
2013-03-13 11:44:00,38.7,28.3,29.99,West,270,6.3,10.1,66,0.00,,,0.00,WUHU216HW,2013-03-13 15:44:00,
2013-03-13 11:47:00,39.4,28.2,29.99,NNW,338,5.1,10.1,64,0.00,,,0.00,WUHU216HW,2013-03-13 15:47:00,
2013-03-13 11:48:00,39.6,28.0,29.98,WNW,293,7.8,10.1,63,0.00,,,0.00,WUHU216HW,2013-03-13 15:48:00,
2013-03-13 11:49:00,39.6,28.0,29.98,WNW,293,7.8,10.1,63,0.00,,,0.00,WUHU216HW,2013-03-13 15:49:00,
2013-03-13 11:52:00,39.8,28.5,29.98,WNW,293,6.9,7.8,64,0.00,,,0.00,WUHU216HW,2013-03-13 15:52:00,
2013-03-13 11:54:00,40.0,28.4,29.98,West,270,5.4,7.8,63,0.00,,,0.00,WUHU216HW,2013-03-13 15:54:00,
2013-03-13 11:58:00,40.5,29.6,29.98,NW,315,4.5,7.8,65,0.00,,,0.00,WUHU216HW,2013-03-13 15:58:00,
2013-03-13 11:59:00,40.7,29.4,29.98,NW,315,6.3,6.9,64,0.00,,,0.00,WUHU216HW,2013-03-13 15:59:00,
2013-03-13 12:03:00,40.9,29.6,29.98,WNW,293,4.7,6.3,64,0.00,,,0.00,WUHU216HW,2013-03-13 16:03:00,
2013-03-13 12:04:00,41.0,28.3,29.98,NW,315,8.1,8.1,60,0.00,,,0.00,WUHU216HW,2013-03-13 16:04:00,
2013-03-13 12:05:00,41.0,28.3,29.98,NW,315,8.1,8.1,60,0.00,,,0.00,WUHU216HW,2013-03-13 16:05:00,
2013-03-13 12:08:00,40.7,28.6,29.98,WNW,293,7.4,8.1,62,0.00,,,0.00,WUHU216HW,2013-03-13 16:08:00,
2013-03-13 12:09:00,40.7,28.3,29.98,NNW,338,4.7,8.1,61,0.00,,,0.00,WUHU216HW,2013-03-13 16:09:00,
2013-03-13 12:10:00,40.7,28.3,29.98,NNW,338,4.7,8.1,61,0.00,,,0.00,WUHU216HW,2013-03-13 16:10:00,
2013-03-13 12:13:00,40.9,28.1,29.98,WSW,248,7.4,8.1,60,0.00,,,0.00,WUHU216HW,2013-03-13 16:13:00,
2013-03-13 12:14:00,40.9,27.2,29.98,WNW,293,6.9,8.1,58,0.00,,,0.00,WUHU216HW,2013-03-13 16:14:00,
2013-03-13 12:15:00,40.7,27.0,29.98,WSW,248,6.0,8.1,58,0.00,,,0.00,WUHU216HW,2013-03-13 16:15:00,
2013-03-13 12:18:00,40.3,27.1,29.98,NW,315,6.9,7.4,59,0.00,,,0.00,WUHU216HW,2013-03-13 16:18:00,
2013-03-13 12:19:00,40.5,27.7,29.98,NW,315,6.3,7.4,60,0.00,,,0.00,WUHU216HW,2013-03-13 16:19:00,
2013-03-13 12:20:00,40.7,27.5,29.98,West,270,6.5,7.4,59,0.00,,,0.00,WUHU216HW,2013-03-13 16:20:00,
2013-03-13 12:24:00,40.9,28.8,29.98,NW,315,5.4,6.9,62,0.00,,,0.00,WUHU216HW,2013-03-13 16:24:00,
2013-03-13 12:25:00,40.9,28.8,29.98,NW,315,5.4,6.9,62,0.00,,,0.00,WUHU216HW,2013-03-13 16:25:00,
2013-03-13 12:30:00,42.3,27.6,29.99,NW,315,4.3,6.5,56,0.00,,,0.00,WUHU216HW,2013-03-13 16:30:00,
2013-03-13 12:35:00,40.7,27.5,29.99,WNW,293,8.5,8.5,59,0.00,,,0.00,WUHU216HW,2013-03-13 16:35:00,
2013-03-13 12:40:00,40.0,25.8,29.99,WNW,293,5.8,8.9,57,0.00,,,0.00,WUHU216HW,2013-03-13 16:40:00,
2013-03-13 12:45:00,38.5,24.1,29.98,NNW,338,5.4,8.9,56,0.00,,,0.00,WUHU216HW,2013-03-13 16:45:00,
2013-03-13 12:46:00,38.5,24.1,29.98,NNW,338,5.4,8.9,56,0.00,,,0.00,WUHU216HW,2013-03-13 16:46:00,
2013-03-13 12:50:00,37.8,23.9,29.98,WSW,248,6.0,8.3,57,0.00,,,0.00,WUHU216HW,2013-03-13 16:50:00,
2013-03-13 12:51:00,37.8,23.9,29.98,WSW,248,6.0,8.3,57,0.00,,,0.00,WUHU216HW,2013-03-13 16:51:00,
2013-03-13 12:55:00,38.0,24.0,29.98,WNW,293,8.1,9.2,57,0.00,,,0.00,WUHU216HW,2013-03-13 16:55:00,
2013-03-13 12:56:00,38.0,24.0,29.98,WNW,293,8.1,9.2,57,0.00,,,0.00,WUHU216HW,2013-03-13 16:56:00,
2013-03-13 13:01:00,38.3,24.0,29.98,West,270,7.4,9.2,56,0.00,,,0.00,WUHU216HW,2013-03-13 17:01:00,
2013-03-13 13:02:00,38.3,24.0,29.98,West,270,7.4,9.2,56,0.00,,,0.00,WUHU216HW,2013-03-13 17:02:00,
2013-03-13 13:06:00,38.9,24.4,29.98,WSW,248,3.6,7.4,56,0.00,,,0.00,WUHU216HW,2013-03-13 17:06:00,
2013-03-13 13:07:00,38.9,24.4,29.98,WSW,248,3.6,7.4,56,0.00,,,0.00,WUHU216HW,2013-03-13 17:07:00,
2013-03-13 13:11:00,39.2,24.8,29.98,West,270,6.3,7.4,56,0.00,,,0.00,WUHU216HW,2013-03-13 17:11:00,
2013-03-13 13:12:00,39.2,24.8,29.98,West,270,6.3,6.3,56,0.00,,,0.00,WUHU216HW,2013-03-13 17:12:00,
2013-03-13 13:16:00,39.6,24.7,29.98,NW,315,4.0,8.9,55,0.00,,,0.00,WUHU216HW,2013-03-13 17:16:00,
2013-03-13 13:17:00,40.0,24.6,29.98,North,0,5.6,8.9,54,0.00,,,0.00,WUHU216HW,2013-03-13 17:17:00,
2013-03-13 13:18:00,40.0,24.6,29.98,WNW,293,4.0,8.9,54,0.00,,,0.00,WUHU216HW,2013-03-13 17:18:00,
2013-03-13 13:21:00,40.5,25.0,29.98,West,270,6.7,9.4,54,0.00,,,0.00,WUHU216HW,2013-03-13 17:21:00,
2013-03-13 13:22:00,40.5,25.0,29.98,West,270,4.3,9.4,54,0.00,,,0.00,WUHU216HW,2013-03-13 17:22:00,
2013-03-13 13:23:00,40.5,25.0,29.98,West,270,4.3,9.4,54,0.00,,,0.00,WUHU216HW,2013-03-13 17:23:00,
2013-03-13 13:27:00,40.5,23.8,29.98,West,270,3.4,9.4,51,0.00,,,0.00,WUHU216HW,2013-03-13 17:27:00,
2013-03-13 13:28:00,40.7,23.9,29.98,West,270,7.8,9.4,51,0.00,,,0.00,WUHU216HW,2013-03-13 17:28:00,
2013-03-13 13:32:00,40.7,23.9,29.98,NNW,338,4.5,7.8,51,0.00,,,0.00,WUHU216HW,2013-03-13 17:32:00,
2013-03-13 13:33:00,40.7,23.9,29.98,NNW,338,4.5,7.8,51,0.00,,,0.00,WUHU216HW,2013-03-13 17:33:00,
2013-03-13 13:37:00,39.8,22.6,29.98,NW,315,6.9,9.2,50,0.00,,,0.00,WUHU216HW,2013-03-13 17:37:00,
2013-03-13 13:38:00,39.8,22.6,29.98,NW,315,6.9,9.2,50,0.00,,,0.00,WUHU216HW,2013-03-13 17:38:00,
2013-03-13 13:42:00,39.6,23.3,29.98,NW,315,5.4,9.2,52,0.00,,,0.00,WUHU216HW,2013-03-13 17:42:00,
2013-03-13 13:43:00,39.2,22.6,29.98,WNW,293,5.8,9.2,51,0.00,,,0.00,WUHU216HW,2013-03-13 17:43:00,
2013-03-13 13:47:00,39.6,22.9,29.97,NW,315,6.7,6.9,51,0.00,,,0.00,WUHU216HW,2013-03-13 17:47:00,
2013-03-13 13:48:00,39.6,22.9,29.97,NW,315,6.7,6.9,51,0.00,,,0.00,WUHU216HW,2013-03-13 17:48:00,
2013-03-13 13:49:00,39.8,22.6,29.98,West,270,9.2,9.2,50,0.00,,,0.00,WUHU216HW,2013-03-13 17:49:00,
2013-03-13 13:52:00,39.8,22.6,29.97,NNW,338,6.9,9.2,50,0.00,,,0.00,WUHU216HW,2013-03-13 17:52:00,
2013-03-13 13:53:00,39.8,22.6,29.97,NNW,338,6.9,9.2,50,0.00,,,0.00,WUHU216HW,2013-03-13 17:53:00,
2013-03-13 13:54:00,39.8,22.6,29.97,NNW,338,6.9,9.2,50,0.00,,,0.00,WUHU216HW,2013-03-13 17:54:00,
2013-03-13 13:58:00,39.8,22.2,29.97,North,0,5.4,9.2,49,0.00,,,0.00,WUHU216HW,2013-03-13 17:58:00,
2013-03-13 13:59:00,39.8,22.2,29.97,North,0,5.4,6.9,49,0.00,,,0.00,WUHU216HW,2013-03-13 17:59:00,
2013-03-13 14:03:00,40.5,23.8,29.97,West,270,4.7,6.9,51,0.00,,,0.00,WUHU216HW,2013-03-13 18:03:00,
2013-03-13 14:04:00,40.5,23.3,29.97,NNW,338,3.8,5.4,50,0.00,,,0.00,WUHU216HW,2013-03-13 18:04:00,
2013-03-13 14:08:00,40.9,24.0,29.97,NW,315,6.9,6.9,51,0.00,,,0.00,WUHU216HW,2013-03-13 18:08:00,
2013-03-13 14:09:00,41.2,24.4,29.97,NNW,338,7.6,7.6,51,0.00,,,0.00,WUHU216HW,2013-03-13 18:09:00,
2013-03-13 14:13:00,41.9,24.1,29.97,NNW,338,8.1,8.1,49,0.00,,,0.00,WUHU216HW,2013-03-13 18:13:00,
2013-03-13 14:14:00,41.9,24.1,29.97,NNW,338,8.1,8.1,49,0.00,,,0.00,WUHU216HW,2013-03-13 18:14:00,
2013-03-13 14:18:00,41.9,23.6,29.97,West,270,7.2,8.1,48,0.00,,,0.00,WUHU216HW,2013-03-13 18:18:00,
2013-03-13 14:19:00,41.8,23.4,29.97,SW,225,5.4,8.1,48,0.00,,,0.00,WUHU216HW,2013-03-13 18:19:00,
2013-03-13 14:20:00,41.8,23.9,29.97,West,270,4.3,8.1,49,0.00,,,0.00,WUHU216HW,2013-03-13 18:20:00,
2013-03-13 14:23:00,41.4,22.5,29.97,West,270,5.8,8.1,47,0.00,,,0.00,WUHU216HW,2013-03-13 18:23:00,
2013-03-13 14:24:00,41.4,23.6,29.97,NW,315,4.0,7.6,49,0.00,,,0.00,WUHU216HW,2013-03-13 18:24:00,
2013-03-13 14:25:00,41.4,23.6,29.97,NW,315,4.0,7.6,49,0.00,,,0.00,WUHU216HW,2013-03-13 18:25:00,
2013-03-13 14:28:00,40.7,22.4,29.97,WNW,293,6.3,6.3,48,0.00,,,0.00,WUHU216HW,2013-03-13 18:28:00,
2013-03-13 14:29:00,40.7,22.4,29.97,North,0,4.7,6.3,48,0.00,,,0.00,WUHU216HW,2013-03-13 18:29:00,
2013-03-13 14:30:00,40.7,22.4,29.97,North,0,4.7,6.3,48,0.00,,,0.00,WUHU216HW,2013-03-13 18:30:00,
2013-03-13 14:33:00,40.0,22.2,29.97,NW,315,5.1,6.3,49,0.00,,,0.00,WUHU216HW,2013-03-13 18:33:00,
2013-03-13 14:34:00,40.0,22.8,29.97,NNW,338,3.6,6.3,50,0.00,,,0.00,WUHU216HW,2013-03-13 18:34:00,
2013-03-13 14:35:00,40.0,22.8,29.97,NNW,338,3.6,6.3,50,0.00,,,0.00,WUHU216HW,2013-03-13 18:35:00,
2013-03-13 14:38:00,39.6,22.5,29.97,WNW,293,3.1,6.9,50,0.00,,,0.00,WUHU216HW,2013-03-13 18:38:00,
2013-03-13 14:40:00,39.6,22.9,29.97,NW,315,3.4,6.9,51,0.00,,,0.00,WUHU216HW,2013-03-13 18:40:00,
2013-03-13 14:43:00,39.6,22.5,29.97,NW,315,3.8,6.9,50,0.00,,,0.00,WUHU216HW,2013-03-13 18:43:00,
2013-03-13 14:45:00,39.6,22.5,29.97,NW,315,3.8,5.8,50,0.00,,,0.00,WUHU216HW,2013-03-13 18:45:00,
2013-03-13 14:46:00,39.6,22.9,29.97,WNW,293,3.6,5.8,51,0.00,,,0.00,WUHU216HW,2013-03-13 18:46:00,
2013-03-13 14:48:00,39.6,22.9,29.97,NNW,338,4.9,4.9,51,0.00,,,0.00,WUHU216HW,2013-03-13 18:48:00,
2013-03-13 14:50:00,39.6,22.9,29.97,NNW,338,4.9,4.9,51,0.00,,,0.00,WUHU216HW,2013-03-13 18:50:00,
2013-03-13 14:51:00,39.6,22.9,29.97,West,270,5.4,8.5,51,0.00,,,0.00,WUHU216HW,2013-03-13 18:51:00,
2013-03-13 14:54:00,39.6,23.3,29.97,North,0,5.4,8.5,52,0.00,,,0.00,WUHU216HW,2013-03-13 18:54:00,
2013-03-13 14:55:00,39.8,23.0,29.97,West,270,5.6,8.5,51,0.00,,,0.00,WUHU216HW,2013-03-13 18:55:00,
2013-03-13 14:56:00,39.8,23.0,29.97,West,270,5.6,8.5,51,0.00,,,0.00,WUHU216HW,2013-03-13 18:56:00,
2013-03-13 14:59:00,40.0,23.7,29.97,NNW,338,5.4,8.5,52,0.00,,,0.00,WUHU216HW,2013-03-13 18:59:00,
2013-03-13 15:00:00,40.0,23.2,29.97,North,0,4.0,6.3,51,0.00,,,0.00,WUHU216HW,2013-03-13 19:00:00,
2013-03-13 15:01:00,40.0,23.2,29.97,North,0,4.0,6.3,51,0.00,,,0.00,WUHU216HW,2013-03-13 19:01:00,
2013-03-13 15:02:00,40.0,23.2,29.97,West,270,5.8,6.3,51,0.00,,,0.00,WUHU216HW,2013-03-13 19:02:00,
2013-03-13 15:04:00,40.3,23.6,29.97,West,270,4.9,6.7,51,0.00,,,0.00,WUHU216HW,2013-03-13 19:04:00,
2013-03-13 15:05:00,40.3,23.6,29.97,West,270,2.7,6.7,51,0.00,,,0.00,WUHU216HW,2013-03-13 19:05:00,
2013-03-13 15:06:00,40.3,23.6,29.97,West,270,2.7,6.7,51,0.00,,,0.00,WUHU216HW,2013-03-13 19:06:00,
2013-03-13 15:07:00,40.3,23.6,29.97,West,270,4.3,6.7,51,0.00,,,0.00,WUHU216HW,2013-03-13 19:07:00,
2013-03-13 15:09:00,40.5,23.8,29.97,West,270,5.4,6.7,51,0.00,,,0.00,WUHU216HW,2013-03-13 19:09:00,
2013-03-13 15:10:00,40.5,24.1,29.97,WSW,248,7.8,7.8,52,0.00,,,0.00,WUHU216HW,2013-03-13 19:10:00,
2013-03-13 15:11:00,40.5,24.1,29.96,WSW,248,7.8,7.8,52,0.00,,,0.00,WUHU216HW,2013-03-13 19:11:00,
2013-03-13 15:12:00,40.5,24.1,29.96,WSW,248,7.8,7.8,52,0.00,,,0.00,WUHU216HW,2013-03-13 19:12:00,
2013-03-13 15:14:00,40.5,23.8,29.97,West,270,1.3,7.8,51,0.00,,,0.00,WUHU216HW,2013-03-13 19:14:00,
2013-03-13 15:16:00,40.5,23.8,29.97,West,270,1.3,7.8,51,0.00,,,0.00,WUHU216HW,2013-03-13 19:16:00,
2013-03-13 15:17:00,40.5,23.8,29.96,West,270,1.3,7.8,51,0.00,,,0.00,WUHU216HW,2013-03-13 19:17:00,
2013-03-13 15:20:00,40.3,23.6,29.96,West,270,5.4,7.8,51,0.00,,,0.00,WUHU216HW,2013-03-13 19:20:00,
2013-03-13 15:21:00,40.3,23.6,29.96,West,270,3.4,5.4,51,0.00,,,0.00,WUHU216HW,2013-03-13 19:21:00,
2013-03-13 15:22:00,40.3,23.6,29.96,West,270,3.4,5.4,51,0.00,,,0.00,WUHU216HW,2013-03-13 19:22:00,
2013-03-13 15:25:00,40.7,23.4,29.96,WNW,293,4.7,5.4,50,0.00,,,0.00,WUHU216HW,2013-03-13 19:25:00,
2013-03-13 15:26:00,40.7,23.4,29.96,West,270,3.4,5.4,50,0.00,,,0.00,WUHU216HW,2013-03-13 19:26:00,
2013-03-13 15:27:00,40.9,23.6,29.96,West,270,4.9,5.4,50,0.00,,,0.00,WUHU216HW,2013-03-13 19:27:00,
2013-03-13 15:30:00,40.9,23.0,29.96,West,270,4.7,4.9,49,0.00,,,0.00,WUHU216HW,2013-03-13 19:30:00,
2013-03-13 15:32:00,40.9,23.0,29.96,SSE,158,6.9,6.9,49,0.00,,,0.00,WUHU216HW,2013-03-13 19:32:00,
2013-03-13 15:33:00,40.7,23.0,29.96,WNW,293,7.6,7.6,49,0.00,,,0.00,WUHU216HW,2013-03-13 19:33:00,
2013-03-13 15:35:00,40.5,22.8,29.96,WSW,248,4.7,7.6,49,0.00,,,0.00,WUHU216HW,2013-03-13 19:35:00,
2013-03-13 15:37:00,40.3,22.6,29.96,West,270,2.9,7.6,49,0.00,,,0.00,WUHU216HW,2013-03-13 19:37:00,
2013-03-13 15:38:00,40.1,22.4,29.96,NNE,23,7.8,7.8,49,0.00,,,0.00,WUHU216HW,2013-03-13 19:38:00,
2013-03-13 15:40:00,40.1,22.4,29.96,NNE,23,7.8,7.8,49,0.00,,,0.00,WUHU216HW,2013-03-13 19:40:00,
2013-03-13 15:42:00,40.0,24.1,29.96,WNW,293,5.8,7.8,53,0.00,,,0.00,WUHU216HW,2013-03-13 19:42:00,
2013-03-13 15:43:00,39.8,24.0,29.96,West,270,4.5,7.8,53,0.00,,,0.00,WUHU216HW,2013-03-13 19:43:00,
2013-03-13 15:45:00,39.8,24.0,29.96,West,270,4.5,7.8,53,0.00,,,0.00,WUHU216HW,2013-03-13 19:45:00,
2013-03-13 15:47:00,39.2,23.4,29.96,NW,315,4.5,7.8,53,0.00,,,0.00,WUHU216HW,2013-03-13 19:47:00,
2013-03-13 15:48:00,39.2,23.4,29.96,NW,315,4.5,7.8,53,0.00,,,0.00,WUHU216HW,2013-03-13 19:48:00,
2013-03-13 15:49:00,39.2,23.4,29.96,NNW,338,4.7,7.8,53,0.00,,,0.00,WUHU216HW,2013-03-13 19:49:00,
2013-03-13 15:50:00,39.2,23.4,29.96,NNW,338,3.1,7.2,53,0.00,,,0.00,WUHU216HW,2013-03-13 19:50:00,
2013-03-13 15:53:00,39.2,22.6,29.96,NW,315,6.3,6.5,51,0.00,,,0.00,WUHU216HW,2013-03-13 19:53:00,
2013-03-13 15:54:00,39.1,22.9,29.96,WNW,293,5.4,6.5,52,0.00,,,0.00,WUHU216HW,2013-03-13 19:54:00,
2013-03-13 15:55:00,38.9,22.7,29.96,WNW,293,5.4,6.5,52,0.00,,,0.00,WUHU216HW,2013-03-13 19:55:00,
2013-03-13 15:58:00,38.7,22.5,29.97,NW,315,5.8,6.5,52,0.00,,,0.00,WUHU216HW,2013-03-13 19:58:00,
2013-03-13 15:59:00,38.7,23.0,29.97,West,270,6.3,6.5,53,0.00,,,0.00,WUHU216HW,2013-03-13 19:59:00,
2013-03-13 16:01:00,38.5,23.7,29.97,WNW,293,4.0,6.3,55,0.00,,,0.00,WUHU216HW,2013-03-13 20:01:00,
2013-03-13 16:03:00,38.3,23.5,29.97,WSW,248,6.0,6.3,55,0.00,,,0.00,WUHU216HW,2013-03-13 20:03:00,
2013-03-13 16:04:00,38.3,23.5,29.97,WSW,248,6.0,6.3,55,0.00,,,0.00,WUHU216HW,2013-03-13 20:04:00,
2013-03-13 16:06:00,38.2,24.7,29.97,NNW,338,6.7,6.7,58,0.00,,,0.00,WUHU216HW,2013-03-13 20:06:00,
2013-03-13 16:08:00,38.0,24.9,29.97,NW,315,6.3,6.7,59,0.00,,,0.00,WUHU216HW,2013-03-13 20:08:00,
2013-03-13 16:09:00,37.8,24.8,29.97,NNW,338,6.3,6.7,59,0.00,,,0.00,WUHU216HW,2013-03-13 20:09:00,
2013-03-13 16:11:00,37.8,24.8,29.97,West,270,2.5,6.7,59,0.00,,,0.00,WUHU216HW,2013-03-13 20:11:00,
2013-03-13 16:13:00,37.8,25.2,29.97,NW,315,4.7,6.7,60,0.00,,,0.00,WUHU216HW,2013-03-13 20:13:00,
2013-03-13 16:14:00,37.8,24.8,29.97,WSW,248,4.7,6.7,59,0.00,,,0.00,WUHU216HW,2013-03-13 20:14:00,
2013-03-13 16:16:00,37.8,24.8,29.97,WNW,293,2.9,6.3,59,0.00,,,0.00,WUHU216HW,2013-03-13 20:16:00,
2013-03-13 16:18:00,38.0,25.3,29.97,West,270,3.4,6.3,60,0.00,,,0.00,WUHU216HW,2013-03-13 20:18:00,
2013-03-13 16:19:00,38.0,25.3,29.97,West,270,3.4,6.3,60,0.00,,,0.00,WUHU216HW,2013-03-13 20:19:00,
2013-03-13 16:21:00,38.0,24.5,29.97,West,270,5.4,6.3,58,0.00,,,0.00,WUHU216HW,2013-03-13 20:21:00,
2013-03-13 16:23:00,38.2,24.7,29.97,West,270,5.4,6.3,58,0.00,,,0.00,WUHU216HW,2013-03-13 20:23:00,
2013-03-13 16:24:00,38.2,24.7,29.97,West,270,5.4,6.3,58,0.00,,,0.00,WUHU216HW,2013-03-13 20:24:00,
2013-03-13 16:27:00,38.0,24.5,29.97,NW,315,4.5,6.9,58,0.00,,,0.00,WUHU216HW,2013-03-13 20:27:00,
2013-03-13 16:28:00,38.2,24.7,29.97,NW,315,4.7,6.9,58,0.00,,,0.00,WUHU216HW,2013-03-13 20:28:00,
2013-03-13 16:29:00,38.2,24.7,29.97,NW,315,4.7,6.9,58,0.00,,,0.00,WUHU216HW,2013-03-13 20:29:00,
2013-03-13 16:32:00,38.2,24.7,29.97,North,0,3.1,6.9,58,0.00,,,0.00,WUHU216HW,2013-03-13 20:32:00,
2013-03-13 16:34:00,38.0,24.0,29.97,NW,315,7.2,7.2,57,0.00,,,0.00,WUHU216HW,2013-03-13 20:34:00,
2013-03-13 16:35:00,38.0,24.0,29.97,NW,315,6.3,7.2,57,0.00,,,0.00,WUHU216HW,2013-03-13 20:35:00,
2013-03-13 16:37:00,37.8,24.8,29.97,West,270,6.3,7.2,59,0.00,,,0.00,WUHU216HW,2013-03-13 20:37:00,
2013-03-13 16:39:00,38.0,24.9,29.97,WNW,293,7.2,7.2,59,0.00,,,0.00,WUHU216HW,2013-03-13 20:39:00,
2013-03-13 16:40:00,38.0,24.9,29.97,WSW,248,8.3,8.3,59,0.00,,,0.00,WUHU216HW,2013-03-13 20:40:00,
2013-03-13 16:42:00,38.2,24.7,29.97,NNW,338,3.1,8.3,58,0.00,,,0.00,WUHU216HW,2013-03-13 20:42:00,
2013-03-13 16:44:00,38.2,24.7,29.97,WNW,293,5.4,8.3,58,0.00,,,0.00,WUHU216HW,2013-03-13 20:44:00,
2013-03-13 16:45:00,38.2,24.7,29.97,WNW,293,5.1,8.3,58,0.00,,,0.00,WUHU216HW,2013-03-13 20:45:00,
2013-03-13 16:47:00,38.0,24.5,29.97,WSW,248,3.1,8.3,58,0.00,,,0.00,WUHU216HW,2013-03-13 20:47:00,
2013-03-13 16:49:00,38.0,24.5,29.97,North,0,4.9,8.3,58,0.00,,,0.00,WUHU216HW,2013-03-13 20:49:00,
2013-03-13 16:50:00,38.0,24.5,29.97,North,0,4.9,7.6,58,0.00,,,0.00,WUHU216HW,2013-03-13 20:50:00,
2013-03-13 16:52:00,38.2,25.0,29.97,NE,45,2.5,6.7,59,0.00,,,0.00,WUHU216HW,2013-03-13 20:52:00,
2013-03-13 16:54:00,38.2,25.0,29.97,WNW,293,4.5,6.7,59,0.00,,,0.00,WUHU216HW,2013-03-13 20:54:00,
2013-03-13 16:55:00,38.2,25.0,29.97,West,270,4.0,6.7,59,0.00,,,0.00,WUHU216HW,2013-03-13 20:55:00,
2013-03-13 16:57:00,38.2,25.0,29.98,WSW,248,4.3,6.7,59,0.00,,,0.00,WUHU216HW,2013-03-13 20:57:00,
2013-03-13 16:59:00,38.2,24.7,29.98,NW,315,6.3,6.7,58,0.00,,,0.00,WUHU216HW,2013-03-13 20:59:00,
2013-03-13 17:00:00,38.2,24.7,29.98,NW,315,6.3,6.3,58,0.00,,,0.00,WUHU216HW,2013-03-13 21:00:00,
2013-03-13 17:02:00,38.0,24.5,29.98,West,270,6.3,8.3,58,0.00,,,0.00,WUHU216HW,2013-03-13 21:02:00,
2013-03-13 17:04:00,38.0,24.9,29.98,West,270,10.3,10.3,59,0.00,,,0.00,WUHU216HW,2013-03-13 21:04:00,
2013-03-13 17:05:00,38.0,24.9,29.98,WNW,293,6.9,10.3,59,0.00,,,0.00,WUHU216HW,2013-03-13 21:05:00,
2013-03-13 17:07:00,37.8,24.8,29.98,WSW,248,5.8,10.3,59,0.00,,,0.00,WUHU216HW,2013-03-13 21:07:00,
2013-03-13 17:10:00,37.8,24.8,29.98,West,270,5.1,10.3,59,0.00,,,0.00,WUHU216HW,2013-03-13 21:10:00,
2013-03-13 17:11:00,37.8,25.2,29.98,West,270,5.6,10.3,60,0.00,,,0.00,WUHU216HW,2013-03-13 21:11:00,
2013-03-13 17:12:00,37.8,25.2,29.98,West,270,3.1,10.3,60,0.00,,,0.00,WUHU216HW,2013-03-13 21:12:00,
2013-03-13 17:15:00,37.6,25.0,29.98,NW,315,4.3,6.9,60,0.00,,,0.00,WUHU216HW,2013-03-13 21:15:00,
2013-03-13 17:16:00,37.6,25.0,29.98,West,270,4.5,6.7,60,0.00,,,0.00,WUHU216HW,2013-03-13 21:16:00,
2013-03-13 17:17:00,37.4,24.8,29.99,West,270,4.3,6.7,60,0.00,,,0.00,WUHU216HW,2013-03-13 21:17:00,
2013-03-13 17:20:00,37.4,25.2,29.98,West,270,3.6,6.7,61,0.00,,,0.00,WUHU216HW,2013-03-13 21:20:00,
2013-03-13 17:22:00,37.4,25.2,29.99,West,270,4.7,6.0,61,0.00,,,0.00,WUHU216HW,2013-03-13 21:22:00,
2013-03-13 17:23:00,37.4,25.2,29.99,NW,315,1.8,6.0,61,0.00,,,0.00,WUHU216HW,2013-03-13 21:23:00,
2013-03-13 17:25:00,37.4,25.2,29.99,SW,225,2.5,6.0,61,0.00,,,0.00,WUHU216HW,2013-03-13 21:25:00,
2013-03-13 17:26:00,37.3,25.5,29.99,WNW,293,4.3,6.0,62,0.00,,,0.00,WUHU216HW,2013-03-13 21:26:00,
2013-03-13 17:27:00,37.3,25.5,29.99,WNW,293,3.1,6.0,62,0.00,,,0.00,WUHU216HW,2013-03-13 21:27:00,
2013-03-13 17:28:00,37.3,25.5,29.99,NW,315,4.5,6.0,62,0.00,,,0.00,WUHU216HW,2013-03-13 21:28:00,
2013-03-13 17:31:00,37.3,25.5,29.99,NNW,338,3.6,4.9,62,0.00,,,0.00,WUHU216HW,2013-03-13 21:31:00,
2013-03-13 17:32:00,37.3,25.5,29.99,West,270,2.7,4.9,62,0.00,,,0.00,WUHU216HW,2013-03-13 21:32:00,
2013-03-13 17:33:00,37.3,25.8,29.99,NW,315,5.1,5.1,63,0.00,,,0.00,WUHU216HW,2013-03-13 21:33:00,
2013-03-13 17:36:00,37.3,26.2,29.99,NW,315,3.1,5.4,64,0.00,,,0.00,WUHU216HW,2013-03-13 21:36:00,
2013-03-13 17:37:00,37.3,26.2,29.99,NW,315,2.2,5.4,64,0.00,,,0.00,WUHU216HW,2013-03-13 21:37:00,
2013-03-13 17:38:00,37.3,26.2,29.99,West,270,1.6,5.4,64,0.00,,,0.00,WUHU216HW,2013-03-13 21:38:00,
2013-03-13 17:42:00,37.3,26.2,29.99,North,0,4.0,5.4,64,0.00,,,0.00,WUHU216HW,2013-03-13 21:42:00,
2013-03-13 17:43:00,37.3,26.2,29.99,NNW,338,3.1,5.4,64,0.00,,,0.00,WUHU216HW,2013-03-13 21:43:00,
2013-03-13 17:47:00,37.1,24.5,29.99,NW,315,6.0,6.3,60,0.00,,,0.00,WUHU216HW,2013-03-13 21:47:00,
2013-03-13 17:48:00,37.1,24.1,29.98,West,270,5.4,6.3,59,0.00,,,0.00,WUHU216HW,2013-03-13 21:48:00,
2013-03-13 17:52:00,36.7,23.3,29.99,WNW,293,5.4,8.9,58,0.00,,,0.00,WUHU216HW,2013-03-13 21:52:00,
2013-03-13 17:53:00,36.7,23.3,29.99,NNW,338,7.4,8.9,58,0.00,,,0.00,WUHU216HW,2013-03-13 21:53:00,
2013-03-13 17:57:00,36.4,22.1,29.99,WSW,248,7.6,8.9,56,0.00,,,0.00,WUHU216HW,2013-03-13 21:57:00,
2013-03-13 17:58:00,36.4,22.1,29.99,West,270,8.5,8.9,56,0.00,,,0.00,WUHU216HW,2013-03-13 21:58:00,
2013-03-13 17:59:00,36.2,22.4,29.99,NW,315,6.9,8.9,57,0.00,,,0.00,WUHU216HW,2013-03-13 21:59:00,
2013-03-13 18:02:00,36.0,21.8,29.99,North,0,6.3,8.5,56,0.00,,,0.00,WUHU216HW,2013-03-13 22:02:00,
2013-03-13 18:03:00,36.0,21.8,29.99,North,0,6.3,8.5,56,0.00,,,0.00,WUHU216HW,2013-03-13 22:03:00,
2013-03-13 18:04:00,36.0,22.2,29.99,NW,315,8.5,8.5,57,0.00,,,0.00,WUHU216HW,2013-03-13 22:04:00,
2013-03-13 18:07:00,36.0,21.8,29.99,NW,315,5.1,8.5,56,0.00,,,0.00,WUHU216HW,2013-03-13 22:07:00,
2013-03-13 18:08:00,36.0,21.8,29.99,North,0,6.9,8.5,56,0.00,,,0.00,WUHU216HW,2013-03-13 22:08:00,
2013-03-13 18:09:00,36.0,21.8,29.99,North,0,6.9,8.5,56,0.00,,,0.00,WUHU216HW,2013-03-13 22:09:00,
2013-03-13 18:12:00,35.8,21.7,29.99,WNW,293,8.1,8.5,56,0.00,,,0.00,WUHU216HW,2013-03-13 22:12:00,
2013-03-13 18:13:00,35.6,21.5,29.99,WNW,293,6.3,8.1,56,0.00,,,0.00,WUHU216HW,2013-03-13 22:13:00,
2013-03-13 18:14:00,35.6,21.5,29.99,WNW,293,5.4,8.1,56,0.00,,,0.00,WUHU216HW,2013-03-13 22:14:00,
2013-03-13 18:17:00,35.6,22.0,29.99,West,270,6.0,8.1,57,0.00,,,0.00,WUHU216HW,2013-03-13 22:17:00,
2013-03-13 18:18:00,35.6,22.0,29.99,West,270,6.5,8.1,57,0.00,,,0.00,WUHU216HW,2013-03-13 22:18:00,
2013-03-13 18:19:00,35.6,22.0,29.99,West,270,6.5,8.1,57,0.00,,,0.00,WUHU216HW,2013-03-13 22:19:00,
2013-03-13 18:22:00,35.3,22.0,30.00,NNW,338,6.3,9.8,58,0.00,,,0.00,WUHU216HW,2013-03-13 22:22:00,
2013-03-13 18:23:00,35.3,22.0,30.00,NW,315,5.6,9.8,58,0.00,,,0.00,WUHU216HW,2013-03-13 22:23:00,
2013-03-13 18:24:00,35.3,22.0,30.00,NW,315,5.6,9.8,58,0.00,,,0.00,WUHU216HW,2013-03-13 22:24:00,
2013-03-13 18:27:00,35.1,22.7,30.00,NW,315,5.6,9.8,60,0.00,,,0.00,WUHU216HW,2013-03-13 22:27:00,
2013-03-13 18:28:00,34.9,22.5,30.00,NW,315,6.9,9.8,60,0.00,,,0.00,WUHU216HW,2013-03-13 22:28:00,
2013-03-13 18:29:00,34.9,22.5,30.00,NW,315,6.9,9.8,60,0.00,,,0.00,WUHU216HW,2013-03-13 22:29:00,
2013-03-13 18:32:00,34.9,23.2,30.01,NW,315,8.7,9.2,62,0.00,,,0.00,WUHU216HW,2013-03-13 22:32:00,
2013-03-13 18:33:00,34.9,23.2,30.01,West,270,9.4,9.4,62,0.00,,,0.00,WUHU216HW,2013-03-13 22:33:00,
2013-03-13 18:34:00,34.9,23.2,30.01,West,270,9.4,9.4,62,0.00,,,0.00,WUHU216HW,2013-03-13 22:34:00,
2013-03-13 18:35:00,34.7,23.4,30.01,West,270,7.6,9.4,63,0.00,,,0.00,WUHU216HW,2013-03-13 22:35:00,
2013-03-13 18:37:00,34.6,23.6,30.01,WNW,293,6.3,9.4,64,0.00,,,0.00,WUHU216HW,2013-03-13 22:37:00,
2013-03-13 18:38:00,34.4,23.4,30.02,West,270,7.4,9.4,64,0.00,,,0.00,WUHU216HW,2013-03-13 22:38:00,
2013-03-13 18:39:00,34.4,23.8,30.01,WSW,248,7.8,9.4,65,0.00,,,0.00,WUHU216HW,2013-03-13 22:39:00,
2013-03-13 18:40:00,34.4,23.8,30.01,WSW,248,7.8,9.4,65,0.00,,,0.00,WUHU216HW,2013-03-13 22:40:00,
2013-03-13 18:43:00,34.2,22.9,30.01,NW,315,6.3,9.4,63,0.00,,,0.00,WUHU216HW,2013-03-13 22:43:00,
2013-03-13 18:44:00,34.2,22.9,30.01,NW,315,6.9,7.8,63,0.00,,,0.00,WUHU216HW,2013-03-13 22:44:00,
2013-03-13 18:45:00,34.2,22.5,30.01,WSW,248,4.7,7.8,62,0.00,,,0.00,WUHU216HW,2013-03-13 22:45:00,
2013-03-13 18:48:00,34.2,22.5,30.00,West,270,3.1,7.8,62,0.00,,,0.00,WUHU216HW,2013-03-13 22:48:00,
2013-03-13 18:49:00,34.2,22.5,30.01,West,270,5.6,7.8,62,0.00,,,0.00,WUHU216HW,2013-03-13 22:49:00,
2013-03-13 18:50:00,34.0,22.3,30.01,West,270,4.9,7.4,62,0.00,,,0.00,WUHU216HW,2013-03-13 22:50:00,
2013-03-13 18:53:00,33.8,21.8,30.01,WNW,293,5.6,7.6,61,0.00,,,0.00,WUHU216HW,2013-03-13 22:53:00,
2013-03-13 18:54:00,33.8,21.4,30.01,West,270,6.5,7.6,60,0.00,,,0.00,WUHU216HW,2013-03-13 22:54:00,
2013-03-13 18:55:00,33.7,21.2,30.01,SW,225,6.9,7.6,60,0.00,,,0.00,WUHU216HW,2013-03-13 22:55:00,
2013-03-13 18:58:00,33.5,21.4,30.01,West,270,6.3,7.6,61,0.00,,,0.00,WUHU216HW,2013-03-13 22:58:00,
2013-03-13 18:59:00,33.5,21.4,30.01,West,270,5.1,7.6,61,0.00,,,0.00,WUHU216HW,2013-03-13 22:59:00,
2013-03-13 19:00:00,33.3,21.3,30.01,NNW,338,4.7,7.6,61,0.00,,,0.00,WUHU216HW,2013-03-13 23:00:00,
2013-03-13 19:04:00,33.1,21.2,30.01,WNW,293,6.3,6.9,61,0.00,,,0.00,WUHU216HW,2013-03-13 23:04:00,
2013-03-13 19:05:00,33.1,21.2,30.02,West,270,4.7,6.7,61,0.00,,,0.00,WUHU216HW,2013-03-13 23:05:00,
2013-03-13 19:09:00,33.1,21.2,30.02,West,270,3.6,6.7,61,0.00,,,0.00,WUHU216HW,2013-03-13 23:09:00,
2013-03-13 19:10:00,33.1,21.5,30.02,West,270,3.1,6.3,62,0.00,,,0.00,WUHU216HW,2013-03-13 23:10:00,
2013-03-13 19:11:00,33.1,21.5,30.02,West,270,3.1,6.3,62,0.00,,,0.00,WUHU216HW,2013-03-13 23:11:00,
2013-03-13 19:14:00,33.1,21.5,30.02,WNW,293,4.5,6.9,62,0.00,,,0.00,WUHU216HW,2013-03-13 23:14:00,
2013-03-13 19:15:00,33.1,21.5,30.02,NNW,338,4.9,6.9,62,0.00,,,0.00,WUHU216HW,2013-03-13 23:15:00,
2013-03-13 19:16:00,33.1,21.5,30.02,NNW,338,4.9,6.9,62,0.00,,,0.00,WUHU216HW,2013-03-13 23:16:00,
2013-03-13 19:19:00,33.1,21.5,30.02,West,270,7.4,7.6,62,0.00,,,0.00,WUHU216HW,2013-03-13 23:19:00,
2013-03-13 19:20:00,33.1,21.5,30.02,WNW,293,5.4,7.6,62,0.00,,,0.00,WUHU216HW,2013-03-13 23:20:00,
2013-03-13 19:21:00,33.1,21.5,30.02,WNW,293,5.4,7.6,62,0.00,,,0.00,WUHU216HW,2013-03-13 23:21:00,
2013-03-13 19:25:00,32.9,20.2,30.02,WNW,293,5.6,7.6,59,0.00,,,0.00,WUHU216HW,2013-03-13 23:25:00,
2013-03-13 19:27:00,32.9,20.2,30.02,West,270,5.4,7.6,59,0.00,,,0.00,WUHU216HW,2013-03-13 23:27:00,
2013-03-13 19:30:00,32.8,19.6,30.02,NW,315,6.3,6.3,58,0.00,,,0.00,WUHU216HW,2013-03-13 23:30:00,
2013-03-13 19:32:00,32.8,19.6,30.02,NW,315,6.3,7.2,58,0.00,,,0.00,WUHU216HW,2013-03-13 23:32:00,
2013-03-13 19:35:00,32.6,19.5,30.02,West,270,5.6,7.2,58,0.00,,,0.00,WUHU216HW,2013-03-13 23:35:00,
2013-03-13 19:37:00,32.4,18.8,30.02,WNW,293,9.8,9.8,57,0.00,,,0.00,WUHU216HW,2013-03-13 23:37:00,
2013-03-13 19:40:00,32.2,19.1,30.02,West,270,6.7,9.8,58,0.00,,,0.00,WUHU216HW,2013-03-13 23:40:00,
2013-03-13 19:42:00,32.2,19.1,30.02,NW,315,4.0,9.8,58,0.00,,,0.00,WUHU216HW,2013-03-13 23:42:00,
2013-03-13 19:45:00,32.0,18.9,30.03,NNW,338,4.7,9.8,58,0.00,,,0.00,WUHU216HW,2013-03-13 23:45:00,
2013-03-13 19:46:00,32.0,18.9,30.03,NW,315,3.4,9.8,58,0.00,,,0.00,WUHU216HW,2013-03-13 23:46:00,
2013-03-13 19:47:00,32.0,18.9,30.03,West,270,6.7,9.4,58,0.00,,,0.00,WUHU216HW,2013-03-13 23:47:00,
2013-03-13 19:50:00,31.9,19.2,30.03,NNW,338,4.0,6.7,59,0.00,,,0.00,WUHU216HW,2013-03-13 23:50:00,
2013-03-13 19:51:00,31.9,19.2,30.03,NNW,338,4.0,6.7,59,0.00,,,0.00,WUHU216HW,2013-03-13 23:51:00,
2013-03-13 19:52:00,31.9,19.2,30.03,NW,315,4.7,6.7,59,0.00,,,0.00,WUHU216HW,2013-03-13 23:52:00,
2013-03-13 19:55:00,31.7,19.4,30.03,West,270,5.8,7.2,60,0.00,,,0.00,WUHU216HW,2013-03-13 23:55:00,
2013-03-13 19:56:00,31.7,19.4,30.03,West,270,5.8,7.2,60,0.00,,,0.00,WUHU216HW,2013-03-13 23:56:00,
2013-03-13 19:57:00,31.7,19.4,30.03,West,270,5.8,7.2,60,0.00,,,0.00,WUHU216HW,2013-03-13 23:57:00,
2013-03-13 20:00:00,31.5,19.6,30.03,WSW,248,6.5,7.2,61,0.00,,,0.00,WUHU216HW,2013-03-14 00:00:00,
2013-03-13 20:01:00,31.5,19.6,30.03,WSW,248,6.5,7.2,61,0.00,,,0.00,WUHU216HW,2013-03-14 00:01:00,
2013-03-13 20:02:00,31.3,19.4,30.03,WNW,293,4.3,7.2,61,0.00,,,0.00,WUHU216HW,2013-03-14 00:02:00,
2013-03-13 20:06:00,31.3,19.8,30.03,West,270,4.3,6.5,62,0.00,,,0.00,WUHU216HW,2013-03-14 00:06:00,
2013-03-13 20:08:00,31.1,19.6,30.03,West,270,4.7,6.5,62,0.00,,,0.00,WUHU216HW,2013-03-14 00:08:00,
2013-03-13 20:11:00,31.1,19.6,30.04,NW,315,5.4,5.4,62,0.00,,,0.00,WUHU216HW,2013-03-14 00:11:00,
2013-03-13 20:13:00,31.1,19.6,30.03,NW,315,5.1,5.4,62,0.00,,,0.00,WUHU216HW,2013-03-14 00:13:00,
2013-03-13 20:16:00,31.0,19.4,30.04,NW,315,5.6,7.2,62,0.00,,,0.00,WUHU216HW,2013-03-14 00:16:00,
2013-03-13 20:17:00,31.0,19.4,30.04,NW,315,5.6,7.2,62,0.00,,,0.00,WUHU216HW,2013-03-14 00:17:00,
2013-03-13 20:18:00,31.0,19.4,30.04,North,0,4.0,7.2,62,0.00,,,0.00,WUHU216HW,2013-03-14 00:18:00,
2013-03-13 20:21:00,30.8,19.6,30.04,NNW,338,6.0,7.2,63,0.00,,,0.00,WUHU216HW,2013-03-14 00:21:00,
2013-03-13 20:22:00,30.8,19.6,30.04,NNW,338,6.0,7.2,63,0.00,,,0.00,WUHU216HW,2013-03-14 00:22:00,
2013-03-13 20:23:00,30.8,19.6,30.04,WNW,293,4.7,7.2,63,0.00,,,0.00,WUHU216HW,2013-03-14 00:23:00,
2013-03-13 20:27:00,30.6,19.8,30.04,West,270,5.4,6.0,64,0.00,,,0.00,WUHU216HW,2013-03-14 00:27:00,
2013-03-13 20:28:00,30.6,19.8,30.04,WNW,293,5.4,6.0,64,0.00,,,0.00,WUHU216HW,2013-03-14 00:28:00,
2013-03-13 20:32:00,30.6,19.8,30.04,WNW,293,5.6,6.7,64,0.00,,,0.00,WUHU216HW,2013-03-14 00:32:00,
2013-03-13 20:33:00,30.6,19.8,30.04,WNW,293,5.6,6.7,64,0.00,,,0.00,WUHU216HW,2013-03-14 00:33:00,
2013-03-13 20:37:00,30.6,19.4,30.04,NNW,338,4.3,6.7,63,0.00,,,0.00,WUHU216HW,2013-03-14 00:37:00,
2013-03-13 20:38:00,30.6,19.4,30.04,NW,315,4.0,6.7,63,0.00,,,0.00,WUHU216HW,2013-03-14 00:38:00,
2013-03-13 20:39:00,30.6,19.4,30.05,NW,315,4.0,6.7,63,0.00,,,0.00,WUHU216HW,2013-03-14 00:39:00,
2013-03-13 20:42:00,30.8,20.0,30.05,West,270,10.3,10.3,64,0.00,,,0.00,WUHU216HW,2013-03-14 00:42:00,
2013-03-13 20:43:00,30.8,20.0,30.05,West,270,10.3,10.3,64,0.00,,,0.00,WUHU216HW,2013-03-14 00:43:00,
2013-03-13 20:44:00,30.8,20.0,30.05,South,180,10.1,10.3,64,0.00,,,0.00,WUHU216HW,2013-03-14 00:44:00,
2013-03-13 20:47:00,30.6,20.2,30.05,NW,315,6.9,10.3,65,0.00,,,0.00,WUHU216HW,2013-03-14 00:47:00,
2013-03-13 20:48:00,30.6,20.2,30.05,NW,315,6.9,10.3,65,0.00,,,0.00,WUHU216HW,2013-03-14 00:48:00,
2013-03-13 20:49:00,30.4,20.3,30.05,NNW,338,8.7,10.3,66,0.00,,,0.00,WUHU216HW,2013-03-14 00:49:00,
2013-03-13 20:52:00,30.2,20.2,30.04,NW,315,6.3,10.1,66,0.00,,,0.00,WUHU216HW,2013-03-14 00:52:00,
2013-03-13 20:53:00,30.2,20.2,30.04,NW,315,5.1,10.1,66,0.00,,,0.00,WUHU216HW,2013-03-14 00:53:00,
2013-03-13 20:54:00,30.1,20.0,30.04,WNW,293,8.5,8.7,66,0.00,,,0.00,WUHU216HW,2013-03-14 00:54:00,
2013-03-13 20:57:00,29.9,19.8,30.04,West,270,6.5,8.7,66,0.00,,,0.00,WUHU216HW,2013-03-14 00:57:00,
2013-03-13 20:58:00,29.9,19.8,30.04,West,270,6.5,8.7,66,0.00,,,0.00,WUHU216HW,2013-03-14 00:58:00,
2013-03-13 20:59:00,29.9,19.8,30.04,WNW,293,6.5,8.5,66,0.00,,,0.00,WUHU216HW,2013-03-14 00:59:00,
2013-03-13 21:02:00,29.7,19.7,30.04,SSW,203,5.1,8.5,66,0.00,,,0.00,WUHU216HW,2013-03-14 01:02:00,
2013-03-13 21:03:00,29.7,19.7,30.04,SSW,203,5.1,8.5,66,0.00,,,0.00,WUHU216HW,2013-03-14 01:03:00,
2013-03-13 21:04:00,29.7,19.7,30.04,SSW,203,5.1,8.3,66,0.00,,,0.00,WUHU216HW,2013-03-14 01:04:00,
2013-03-13 21:05:00,29.5,19.2,30.04,West,270,7.6,8.3,65,0.00,,,0.00,WUHU216HW,2013-03-14 01:05:00,
2013-03-13 21:08:00,29.3,19.0,30.04,WNW,293,7.6,8.9,65,0.00,,,0.00,WUHU216HW,2013-03-14 01:08:00,
2013-03-13 21:10:00,29.3,19.0,30.04,West,270,10.3,10.3,65,0.00,,,0.00,WUHU216HW,2013-03-14 01:10:00,
2013-03-13 21:13:00,29.2,18.5,30.04,WNW,293,7.8,10.3,64,0.00,,,0.00,WUHU216HW,2013-03-14 01:13:00,
2013-03-13 21:14:00,29.2,18.5,30.04,WNW,293,7.8,10.3,64,0.00,,,0.00,WUHU216HW,2013-03-14 01:14:00,
2013-03-13 21:16:00,29.2,18.5,30.04,NNW,338,8.5,10.3,64,0.00,,,0.00,WUHU216HW,2013-03-14 01:16:00,
2013-03-13 21:18:00,29.2,18.8,30.05,NW,315,8.3,10.3,65,0.00,,,0.00,WUHU216HW,2013-03-14 01:18:00,
2013-03-13 21:19:00,29.2,18.8,30.05,NW,315,8.3,10.3,65,0.00,,,0.00,WUHU216HW,2013-03-14 01:19:00,
2013-03-13 21:21:00,29.0,18.6,30.04,NW,315,8.5,9.6,65,0.00,,,0.00,WUHU216HW,2013-03-14 01:21:00,
2013-03-13 21:23:00,29.0,19.0,30.05,NNW,338,8.7,9.6,66,0.00,,,0.00,WUHU216HW,2013-03-14 01:23:00,
2013-03-13 21:24:00,29.0,19.0,30.05,NNW,338,8.7,9.6,66,0.00,,,0.00,WUHU216HW,2013-03-14 01:24:00,
2013-03-13 21:26:00,28.8,18.9,30.04,West,270,7.6,9.8,66,0.00,,,0.00,WUHU216HW,2013-03-14 01:26:00,
2013-03-13 21:28:00,28.8,18.9,30.04,West,270,6.0,9.8,66,0.00,,,0.00,WUHU216HW,2013-03-14 01:28:00,
2013-03-13 21:29:00,28.8,18.9,30.04,NW,315,6.9,9.8,66,0.00,,,0.00,WUHU216HW,2013-03-14 01:29:00,
2013-03-13 21:31:00,28.8,18.9,30.04,West,270,6.0,9.8,66,0.00,,,0.00,WUHU216HW,2013-03-14 01:31:00,
2013-03-13 21:34:00,28.6,19.1,30.04,WNW,293,5.1,9.8,67,0.00,,,0.00,WUHU216HW,2013-03-14 01:34:00,
2013-03-13 21:37:00,28.6,19.1,30.04,NW,315,6.5,7.6,67,0.00,,,0.00,WUHU216HW,2013-03-14 01:37:00,
2013-03-13 21:39:00,28.6,19.1,30.04,SSE,158,9.2,9.2,67,0.00,,,0.00,WUHU216HW,2013-03-14 01:39:00,
2013-03-13 21:42:00,28.4,18.9,30.04,NW,315,6.9,9.2,67,0.00,,,0.00,WUHU216HW,2013-03-14 01:42:00,
2013-03-13 21:44:00,28.4,19.3,30.04,WNW,293,6.7,9.2,68,0.00,,,0.00,WUHU216HW,2013-03-14 01:44:00,
2013-03-13 21:45:00,28.4,19.3,30.04,WNW,293,6.7,9.2,68,0.00,,,0.00,WUHU216HW,2013-03-14 01:45:00,
2013-03-13 21:47:00,28.4,19.3,30.05,West,270,7.2,9.2,68,0.00,,,0.00,WUHU216HW,2013-03-14 01:47:00,
2013-03-13 21:49:00,28.4,19.3,30.05,NNW,338,5.1,7.2,68,0.00,,,0.00,WUHU216HW,2013-03-14 01:49:00,
2013-03-13 21:50:00,28.4,19.3,30.05,NNW,338,5.1,7.2,68,0.00,,,0.00,WUHU216HW,2013-03-14 01:50:00,
2013-03-13 21:52:00,28.4,18.9,30.05,West,270,5.6,7.2,67,0.00,,,0.00,WUHU216HW,2013-03-14 01:52:00,
2013-03-13 21:54:00,28.4,19.3,30.05,West,270,2.9,7.2,68,0.00,,,0.00,WUHU216HW,2013-03-14 01:54:00,
2013-03-13 21:55:00,28.4,19.3,30.05,West,270,2.9,7.2,68,0.00,,,0.00,WUHU216HW,2013-03-14 01:55:00,
2013-03-13 21:57:00,28.4,19.3,30.06,NW,315,1.1,6.9,68,0.00,,,0.00,WUHU216HW,2013-03-14 01:57:00,
2013-03-13 22:00:00,28.4,19.3,30.06,NW,315,2.2,6.9,68,0.00,,,0.00,WUHU216HW,2013-03-14 02:00:00,
2013-03-13 22:02:00,28.4,19.3,30.07,NW,315,2.0,4.7,68,0.00,,,0.00,WUHU216HW,2013-03-14 02:02:00,
2013-03-13 22:05:00,28.4,19.3,30.07,NNW,338,4.7,5.6,68,0.00,,,0.00,WUHU216HW,2013-03-14 02:05:00,
2013-03-13 22:07:00,28.4,19.3,30.07,WNW,293,3.8,5.6,68,0.00,,,0.00,WUHU216HW,2013-03-14 02:07:00,
2013-03-13 22:10:00,28.4,19.6,30.06,WNW,293,6.0,6.0,69,0.00,,,0.00,WUHU216HW,2013-03-14 02:10:00,
2013-03-13 22:11:00,28.4,19.6,30.06,WNW,293,6.0,6.0,69,0.00,,,0.00,WUHU216HW,2013-03-14 02:11:00,
2013-03-13 22:12:00,28.4,19.6,30.07,WSW,248,3.6,6.0,69,0.00,,,0.00,WUHU216HW,2013-03-14 02:12:00,
2013-03-13 22:15:00,28.3,19.8,30.07,NNE,23,4.7,6.0,70,0.00,,,0.00,WUHU216HW,2013-03-14 02:15:00,
2013-03-13 22:16:00,28.3,19.8,30.07,NNE,23,4.7,6.0,70,0.00,,,0.00,WUHU216HW,2013-03-14 02:16:00,
2013-03-13 22:17:00,28.3,19.8,30.07,WNW,293,4.3,6.0,70,0.00,,,0.00,WUHU216HW,2013-03-14 02:17:00,
2013-03-13 22:20:00,28.1,19.9,30.07,NNW,338,3.4,4.7,71,0.00,,,0.00,WUHU216HW,2013-03-14 02:20:00,
2013-03-13 22:21:00,28.1,19.9,30.07,NNW,338,3.4,4.7,71,0.00,,,0.00,WUHU216HW,2013-03-14 02:21:00,
2013-03-13 22:23:00,27.9,20.1,30.07,WNW,293,3.1,4.7,72,0.00,,,0.00,WUHU216HW,2013-03-14 02:23:00,
2013-03-13 22:25:00,27.7,19.9,30.07,West,270,4.7,4.7,72,0.00,,,0.00,WUHU216HW,2013-03-14 02:25:00,
2013-03-13 22:26:00,27.7,19.9,30.07,West,270,4.7,4.7,72,0.00,,,0.00,WUHU216HW,2013-03-14 02:26:00,
2013-03-13 22:28:00,27.7,20.2,30.07,NW,315,4.9,4.9,73,0.00,,,0.00,WUHU216HW,2013-03-14 02:28:00,
2013-03-13 22:30:00,27.7,20.5,30.07,WSW,248,4.5,4.9,74,0.00,,,0.00,WUHU216HW,2013-03-14 02:30:00,
2013-03-13 22:31:00,27.7,20.5,30.07,WSW,248,4.5,4.9,74,0.00,,,0.00,WUHU216HW,2013-03-14 02:31:00,
2013-03-13 22:32:00,27.7,20.5,30.07,West,270,4.0,4.9,74,0.00,,,0.00,WUHU216HW,2013-03-14 02:32:00,
2013-03-13 22:33:00,27.7,20.5,30.07,West,270,5.4,5.4,74,0.00,,,0.00,WUHU216HW,2013-03-14 02:33:00,
2013-03-13 22:35:00,27.7,21.1,30.07,NNW,338,5.4,6.5,76,0.00,,,0.00,WUHU216HW,2013-03-14 02:35:00,
2013-03-13 22:36:00,27.7,21.1,30.07,NNW,338,5.4,6.5,76,0.00,,,0.00,WUHU216HW,2013-03-14 02:36:00,
2013-03-13 22:37:00,27.7,21.1,30.07,West,270,5.8,6.5,76,0.00,,,0.00,WUHU216HW,2013-03-14 02:37:00,
2013-03-13 22:38:00,27.7,21.1,30.07,NW,315,6.0,6.5,76,0.00,,,0.00,WUHU216HW,2013-03-14 02:38:00,
2013-03-13 22:40:00,27.7,21.1,30.07,NW,315,3.4,6.5,76,0.00,,,0.00,WUHU216HW,2013-03-14 02:40:00,
2013-03-13 22:41:00,27.7,21.1,30.07,NW,315,3.4,6.5,76,0.00,,,0.00,WUHU216HW,2013-03-14 02:41:00,
2013-03-13 22:42:00,27.5,20.6,30.07,NW,315,4.0,6.5,75,0.00,,,0.00,WUHU216HW,2013-03-14 02:42:00,
2013-03-13 22:43:00,27.7,21.1,30.07,West,270,4.9,6.5,76,0.00,,,0.00,WUHU216HW,2013-03-14 02:43:00,
2013-03-13 22:46:00,27.5,20.6,30.07,WNW,293,2.2,6.0,75,0.00,,,0.00,WUHU216HW,2013-03-14 02:46:00,
2013-03-13 22:47:00,27.5,20.6,30.07,WNW,293,5.4,5.4,75,0.00,,,0.00,WUHU216HW,2013-03-14 02:47:00,
2013-03-13 22:48:00,27.5,20.6,30.07,WNW,293,5.4,5.4,75,0.00,,,0.00,WUHU216HW,2013-03-14 02:48:00,
2013-03-13 22:51:00,27.5,20.6,30.08,West,270,4.0,6.0,75,0.00,,,0.00,WUHU216HW,2013-03-14 02:51:00,
2013-03-13 22:52:00,27.5,20.6,30.07,NNW,338,2.7,6.0,75,0.00,,,0.00,WUHU216HW,2013-03-14 02:52:00,
2013-03-13 22:53:00,27.5,20.6,30.08,NNW,338,4.9,6.0,75,0.00,,,0.00,WUHU216HW,2013-03-14 02:53:00,
2013-03-13 22:56:00,27.5,20.9,30.07,West,270,5.4,6.0,76,0.00,,,0.00,WUHU216HW,2013-03-14 02:56:00,
2013-03-13 22:57:00,27.5,20.9,30.07,West,270,6.0,6.0,76,0.00,,,0.00,WUHU216HW,2013-03-14 02:57:00,
2013-03-13 22:59:00,27.5,20.6,30.07,NW,315,2.2,6.0,75,0.00,,,0.00,WUHU216HW,2013-03-14 02:59:00,
2013-03-13 23:01:00,27.5,20.6,30.07,NW,315,4.0,6.0,75,0.00,,,0.00,WUHU216HW,2013-03-14 03:01:00,
2013-03-13 23:02:00,27.5,20.6,30.07,NNW,338,4.3,6.0,75,0.00,,,0.00,WUHU216HW,2013-03-14 03:02:00,
2013-03-13 23:03:00,27.5,20.6,30.07,NNW,338,4.3,6.0,75,0.00,,,0.00,WUHU216HW,2013-03-14 03:03:00,
2013-03-13 23:04:00,27.5,20.6,30.07,West,270,1.8,6.0,75,0.00,,,0.00,WUHU216HW,2013-03-14 03:04:00,
2013-03-13 23:07:00,27.5,20.6,30.07,NNW,338,4.5,4.5,75,0.00,,,0.00,WUHU216HW,2013-03-14 03:07:00,
2013-03-13 23:08:00,27.5,20.6,30.07,NNW,338,4.5,4.5,75,0.00,,,0.00,WUHU216HW,2013-03-14 03:08:00,
2013-03-13 23:09:00,27.5,20.9,30.07,West,270,6.3,6.3,76,0.00,,,0.00,WUHU216HW,2013-03-14 03:09:00,
2013-03-13 23:12:00,27.5,20.6,30.07,North,0,4.0,6.3,75,0.00,,,0.00,WUHU216HW,2013-03-14 03:12:00,
2013-03-13 23:13:00,27.4,19.8,30.07,West,270,4.5,6.3,73,0.00,,,0.00,WUHU216HW,2013-03-14 03:13:00,
2013-03-13 23:14:00,27.4,20.2,30.07,WNW,293,4.0,6.3,74,0.00,,,0.00,WUHU216HW,2013-03-14 03:14:00,
2013-03-13 23:17:00,27.4,19.8,30.07,West,270,4.3,6.3,73,0.00,,,0.00,WUHU216HW,2013-03-14 03:17:00,
2013-03-13 23:18:00,27.4,19.8,30.07,West,270,5.8,6.3,73,0.00,,,0.00,WUHU216HW,2013-03-14 03:18:00,
2013-03-13 23:19:00,27.4,19.8,30.07,WNW,293,4.7,5.8,73,0.00,,,0.00,WUHU216HW,2013-03-14 03:19:00,
2013-03-13 23:22:00,27.4,19.8,30.07,NW,315,4.0,5.8,73,0.00,,,0.00,WUHU216HW,2013-03-14 03:22:00,
2013-03-13 23:23:00,27.4,19.8,30.07,NW,315,4.0,5.8,73,0.00,,,0.00,WUHU216HW,2013-03-14 03:23:00,
2013-03-13 23:24:00,27.4,19.8,30.07,West,270,4.7,5.8,73,0.00,,,0.00,WUHU216HW,2013-03-14 03:24:00,
2013-03-13 23:27:00,27.4,19.8,30.07,West,270,4.3,5.8,73,0.00,,,0.00,WUHU216HW,2013-03-14 03:27:00,
2013-03-13 23:28:00,27.4,19.8,30.07,West,270,4.3,5.8,73,0.00,,,0.00,WUHU216HW,2013-03-14 03:28:00,
2013-03-13 23:29:00,27.4,19.8,30.07,NW,315,6.3,6.3,73,0.00,,,0.00,WUHU216HW,2013-03-14 03:29:00,
2013-03-13 23:32:00,27.4,19.5,30.07,West,270,7.2,7.2,72,0.00,,,0.00,WUHU216HW,2013-03-14 03:32:00,
2013-03-13 23:33:00,27.4,19.5,30.07,West,270,7.2,7.2,72,0.00,,,0.00,WUHU216HW,2013-03-14 03:33:00,
2013-03-13 23:34:00,27.2,19.4,30.07,NNW,338,3.8,7.2,72,0.00,,,0.00,WUHU216HW,2013-03-14 03:34:00,
2013-03-13 23:35:00,27.2,19.4,30.07,NNW,338,3.8,7.2,72,0.00,,,0.00,WUHU216HW,2013-03-14 03:35:00,
2013-03-13 23:37:00,27.4,19.5,30.07,WNW,293,5.8,7.2,72,0.00,,,0.00,WUHU216HW,2013-03-14 03:37:00,
2013-03-13 23:38:00,27.4,19.5,30.07,West,270,5.8,7.2,72,0.00,,,0.00,WUHU216HW,2013-03-14 03:38:00,
2013-03-13 23:39:00,27.2,19.4,30.07,West,270,5.4,7.2,72,0.00,,,0.00,WUHU216HW,2013-03-14 03:39:00,
2013-03-13 23:40:00,27.2,19.4,30.07,West,270,5.4,7.2,72,0.00,,,0.00,WUHU216HW,2013-03-14 03:40:00,
2013-03-13 23:42:00,27.2,18.7,30.07,NW,315,5.4,6.5,70,0.00,,,0.00,WUHU216HW,2013-03-14 03:42:00,
2013-03-13 23:43:00,27.4,19.2,30.07,NNW,338,6.3,6.5,71,0.00,,,0.00,WUHU216HW,2013-03-14 03:43:00,
2013-03-13 23:44:00,27.4,18.9,30.07,NW,315,5.8,6.5,70,0.00,,,0.00,WUHU216HW,2013-03-14 03:44:00,
2013-03-13 23:45:00,27.4,18.9,30.07,NW,315,5.8,6.5,70,0.00,,,0.00,WUHU216HW,2013-03-14 03:45:00,
2013-03-13 23:47:00,27.2,18.7,30.07,NW,315,6.3,6.5,70,0.00,,,0.00,WUHU216HW,2013-03-14 03:47:00,
2013-03-13 23:48:00,27.4,18.9,30.07,West,270,5.1,6.5,70,0.00,,,0.00,WUHU216HW,2013-03-14 03:48:00,
2013-03-13 23:49:00,27.2,18.7,30.07,WNW,293,6.9,6.9,70,0.00,,,0.00,WUHU216HW,2013-03-14 03:49:00,
2013-03-13 23:50:00,27.2,18.7,30.07,WNW,293,6.9,6.9,70,0.00,,,0.00,WUHU216HW,2013-03-14 03:50:00,
2013-03-13 23:53:00,27.2,18.7,30.07,West,270,7.4,7.4,70,0.00,,,0.00,WUHU216HW,2013-03-14 03:53:00,
2013-03-13 23:55:00,27.2,18.4,30.07,WNW,293,7.6,7.6,69,0.00,,,0.00,WUHU216HW,2013-03-14 03:55:00,
2013-03-13 23:58:00,27.2,18.4,30.07,NW,315,6.3,7.6,69,0.00,,,0.00,WUHU216HW,2013-03-14 03:58:00,